GFSSW_sfc_thetae_057.txt.gz
Theta_e
312 312 312 312 313 313 313 314 314 314 314 314 314 314 314 314 314 307 297 303 312 322 321 308 319 317 320 315 318 314 302 298 299 300 302 310 310 315 316 313 315 318 318 320 328
311 311 312 312 312 312 313 313 313 313 314 314 314 313 313 313 306 300 307 320 322 325 311 302 311 312 311 313 314 310 303 302 305 305 305 309 311 312 312 312 313 316 321 321 324
312 312 312 312 312 312 312 313 313 313 313 313 313 312 312 312 295 302 317 317 321 319 314 312 310 313 308 310 312 310 304 308 307 308 309 308 309 313 310 309 313 313 317 320 321
311 312 312 312 312 312 312 312 313 313 314 313 312 312 312 305 287 305 316 314 316 312 312 308 305 302 303 303 309 305 310 310 309 310 310 308 312 311 312 312 316 318 320 320 320
311 311 311 311 311 312 312 312 313 313 313 313 312 312 306 296 294 303 313 312 309 306 302 307 300 302 300 303 305 305 307 310 312 312 311 313 312 312 314 318 321 321 321 320 321
311 311 311 311 311 311 312 313 313 313 313 314 313 311 301 292 302 306 307 308 306 304 302 301 305 303 300 301 302 306 307 307 310 313 313 311 312 314 315 319 318 318 318 319 319
310 310 311 311 311 312 312 313 313 314 315 313 313 308 300 297 307 309 308 307 306 305 301 303 301 302 303 297 303 303 301 303 306 309 309 312 305 308 314 316 315 316 317 318 319
311 310 310 310 311 312 313 313 313 315 316 315 314 306 297 307 311 309 309 307 307 306 304 305 302 297 302 304 300 298 299 294 302 303 304 305 300 310 314 313 313 315 316 316 318
310 310 309 309 311 311 312 312 314 315 315 315 307 303 296 310 304 307 308 303 304 304 304 304 301 295 300 296 294 296 292 295 298 304 303 302 301 308 312 311 312 314 315 315 317
309 310 309 309 310 311 311 312 313 315 313 311 308 298 300 298 303 305 307 306 301 301 299 298 297 294 294 294 287 290 291 294 296 301 301 300 301 306 309 309 310 312 313 314 315
309 309 308 309 310 310 308 305 301 299 300 295 295 296 298 302 305 302 305 302 300 298 292 295 290 287 291 295 296 295 294 293 297 301 300 299 302 304 308 308 308 310 312 314 315
309 308 308 308 309 309 306 300 300 300 294 299 298 298 300 301 295 301 304 296 294 290 292 290 287 292 294 294 293 293 292 292 296 299 298 299 300 304 305 306 308 309 310 312 313
308 307 308 308 308 305 303 302 305 303 293 294 297 296 299 300 296 297 300 296 292 290 291 288 290 293 291 291 291 291 290 292 292 296 298 296 295 299 303 305 306 307 309 310 311
308 307 308 307 303 302 301 305 305 303 288 288 293 297 299 299 293 302 302 299 292 288 290 289 293 289 289 289 292 288 294 293 292 291 289 296 288 297 301 302 304 305 306 308 309
308 308 308 306 301 300 302 305 303 299 276 291 293 302 300 294 296 297 305 299 292 292 289 288 289 288 288 289 293 289 294 293 293 292 291 292 288 293 299 298 301 304 306 307 309
308 308 307 303 303 304 305 303 300 286 276 287 293 292 292 294 294 297 297 302 300 294 294 291 294 291 290 293 293 295 292 292 292 290 284 290 289 291 295 298 300 303 305 307 308
307 307 305 303 300 304 303 299 286 280 289 286 287 291 290 290 291 292 291 292 289 285 285 290 290 293 293 289 291 291 289 282 280 281 281 291 288 291 299 300 301 302 304 307 309
306 303 306 306 307 305 300 291 279 285 285 292 290 290 287 290 289 290 289 288 293 289 287 282 280 289 293 290 288 288 288 283 277 279 282 289 285 291 300 302 303 304 305 308 309
303 303 304 306 306 303 296 286 283 286 289 288 289 285 285 288 288 288 287 288 291 292 285 284 283 293 294 294 292 288 284 291 284 286 284 287 290 296 299 300 302 302 305 306 310
300 301 303 305 305 301 292 285 287 291 292 291 284 287 283 286 286 286 286 291 290 293 294 289 283 290 291 294 293 291 293 284 285 278 278 284 287 289 295 297 300 301 303 306 313
300 299 304 304 304 297 287 287 289 294 294 289 287 286 287 285 286 285 286 290 292 292 294 292 287 286 290 287 287 289 287 288 288 286 281 281 286 297 297 299 299 301 303 305 310
297 295 304 302 294 290 288 289 292 292 295 292 292 290 287 287 286 285 285 289 293 293 288 291 288 283 285 292 293 291 288 287 284 283 286 285 285 298 300 300 301 302 304 306 310
293 293 303 301 287 288 290 289 291 291 291 290 289 290 291 287 283 287 288 292 293 292 289 292 286 280 282 289 291 288 289 290 289 289 285 282 285 298 299 300 302 302 304 306 309
294 290 293 294 292 288 286 287 287 293 292 292 290 292 289 287 289 286 286 290 293 293 296 295 288 284 279 283 288 285 287 289 288 285 285 286 289 294 297 298 300 302 305 306 309
291 289 291 287 288 287 288 287 286 287 292 292 289 289 287 285 285 285 288 290 291 293 293 292 285 287 287 288 287 287 287 288 286 288 284 287 289 293 297 298 300 303 305 306 308
289 290 292 288 288 288 288 287 287 289 288 288 288 290 290 286 287 284 287 288 287 291 290 292 285 287 284 287 287 285 287 288 289 289 289 289 288 296 298 299 300 302 305 306 309
292 293 291 289 287 286 287 287 287 288 291 292 291 290 288 290 293 293 294 293 291 288 289 288 287 284 279 285 286 282 287 288 289 291 290 286 292 296 296 297 300 305 307 308 310

GFSSW_sfc_thetae_060.txt.gz
Theta_e
312 312 313 313 313 313 313 313 314 314 314 315 315 315 314 314 315 310 302 310 314 325 324 312 311 320 322 317 318 319 307 303 303 302 303 309 310 314 320 317 320 321 322 324 334
312 313 313 313 313 313 313 313 313 314 314 314 314 314 314 314 310 303 315 318 320 323 312 308 307 313 314 316 316 312 307 306 310 308 306 309 310 313 315 316 319 320 324 325 328
312 312 313 313 313 313 313 313 313 314 314 314 314 314 313 313 302 307 315 316 319 317 311 312 307 312 309 313 313 313 308 310 311 311 310 309 310 314 313 313 319 319 321 324 324
312 312 312 312 312 313 313 314 314 315 314 314 314 313 313 309 293 312 316 316 316 312 311 309 308 305 308 307 313 308 313 313 313 313 311 309 312 311 312 313 319 320 323 323 324
311 312 312 312 312 312 313 314 314 315 314 314 314 313 311 302 298 306 313 315 312 309 304 305 305 304 303 308 310 309 310 313 313 313 312 313 311 313 314 317 319 320 322 323 325
311 311 311 311 312 312 313 314 314 314 314 315 314 312 307 297 307 310 311 311 310 308 305 304 304 307 303 304 306 310 310 311 313 312 313 310 311 314 317 321 321 322 323 324 324
310 310 310 311 311 312 313 314 314 314 315 317 314 312 305 301 310 313 312 310 310 308 305 306 306 302 306 302 307 307 304 307 310 311 309 313 308 311 317 320 320 320 322 323 324
311 310 310 310 311 312 313 313 313 315 317 315 314 311 302 310 314 311 311 309 310 310 308 308 308 303 301 306 304 301 302 298 306 309 311 309 303 312 317 317 317 319 321 321 323
311 311 309 310 310 311 312 312 314 316 316 315 312 308 299 310 306 309 310 306 308 308 308 308 305 300 299 296 296 300 294 298 301 308 308 306 304 312 316 316 316 318 319 320 322
310 310 310 309 310 310 310 312 315 316 314 314 312 304 303 300 306 307 310 308 305 304 303 302 301 297 296 294 289 293 296 297 298 305 306 304 304 309 313 314 315 317 318 319 321
309 309 309 309 309 310 311 311 307 304 305 300 300 299 300 305 308 305 308 306 304 301 295 300 295 292 294 296 295 296 296 297 301 305 304 304 304 307 311 311 313 315 317 318 320
310 309 308 309 309 309 311 305 303 305 297 303 302 302 304 305 299 302 307 300 299 294 297 295 291 296 297 296 294 294 294 295 300 302 303 303 303 307 310 310 313 314 315 317 319
309 308 309 309 309 310 309 306 311 310 298 297 301 299 300 302 298 299 303 301 297 295 294 291 294 297 295 293 292 293 292 294 295 300 303 301 300 304 308 311 313 314 315 316 316
309 309 309 309 306 309 307 309 311 310 294 292 296 299 301 301 296 303 304 301 298 294 295 293 296 294 293 291 293 289 295 294 295 295 292 301 291 301 305 306 309 311 313 314 315
309 309 308 306 308 308 308 312 311 307 283 293 295 304 302 297 298 298 304 302 296 295 296 293 293 292 291 291 294 291 296 294 296 294 294 295 294 298 304 303 306 310 312 313 314
309 308 307 308 313 310 312 311 307 291 280 290 295 295 295 296 296 298 298 304 303 297 298 296 300 297 294 295 295 296 294 294 294 294 288 293 293 294 298 302 305 309 310 310 312
308 307 308 311 307 312 313 306 291 286 293 289 291 294 294 292 293 294 293 293 292 288 289 293 294 297 297 291 295 293 290 283 282 283 285 295 292 296 303 304 306 307 308 310 312
306 304 307 313 315 313 309 297 284 288 289 294 293 294 289 292 292 293 292 289 295 293 290 287 285 293 296 293 291 291 289 284 278 282 285 293 288 295 304 306 308 308 310 310 314
305 314 314 313 314 312 302 291 289 290 292 291 292 288 289 291 291 291 291 290 292 294 286 286 286 295 296 296 295 291 286 292 286 288 287 291 294 299 303 304 306 305 308 309 314
308 310 309 312 314 308 297 288 291 294 294 293 287 289 287 289 289 290 289 292 291 294 296 291 284 292 293 297 296 293 294 285 287 280 280 287 291 292 298 300 304 305 307 309 313
308 303 307 311 311 302 294 292 293 296 296 291 290 289 290 288 290 288 288 292 294 294 295 293 289 289 293 290 288 291 289 289 289 287 281 284 289 300 301 303 304 305 307 309 311
304 299 309 309 298 299 292 292 293 294 296 294 294 292 290 290 289 289 288 291 296 295 290 294 290 286 288 293 295 293 289 288 285 285 288 288 291 303 305 305 306 305 308 310 312
296 297 308 306 292 291 293 292 294 293 293 293 292 293 294 290 286 289 290 294 295 294 292 295 289 284 285 291 294 290 291 292 292 291 286 285 290 303 304 303 304 306 307 309 311
299 296 301 301 299 291 289 291 290 295 294 294 293 294 292 290 291 288 289 293 295 294 295 296 291 286 283 286 290 287 290 292 291 287 287 289 292 298 301 301 304 306 307 308 310
299 296 297 294 296 292 293 290 288 288 294 295 292 292 290 286 290 289 291 293 295 296 295 292 287 290 290 291 290 289 289 290 290 290 287 290 291 296 300 301 303 305 305 305 308
296 295 298 293 294 292 291 291 289 291 290 290 290 291 291 287 289 287 290 291 289 294 293 295 286 290 287 290 290 288 290 290 290 291 291 292 291 299 301 301 301 302 303 305 309
295 296 294 294 292 290 293 290 290 292 293 294 293 292 290 293 297 298 297 297 294 290 288 290 289 286 283 288 287 284 290 291 292 293 293 289 295 299 299 300 302 303 304 305 309

GFSSW_sfc_thetae_063.txt.gz
Theta_e
314 314 314 314 314 314 314 314 314 314 315 315 316 316 315 316 315 314 309 314 316 325 324 312 314 319 320 319 321 320 309 305 306 305 306 311 310 315 319 317 320 323 325 328 335
313 313 313 313 313 314 314 314 314 315 315 316 316 316 315 315 312 308 316 319 320 323 314 310 310 313 315 316 317 314 309 308 311 312 310 310 311 312 314 316 318 322 326 327 333
313 313 313 313 314 313 314 314 315 316 316 316 316 315 315 315 309 311 317 317 321 319 313 312 312 310 310 315 316 314 309 314 314 314 314 311 312 314 312 313 318 319 324 327 328
312 312 312 313 313 313 313 314 315 316 316 316 316 316 315 315 298 316 316 317 321 316 311 311 310 307 304 307 313 310 314 314 315 316 315 311 313 312 313 314 320 324 327 326 325
312 312 312 312 312 312 313 314 315 315 315 316 316 316 314 308 303 311 314 319 315 311 307 306 307 307 304 306 310 309 311 314 316 316 316 316 313 314 315 318 319 319 323 324 325
312 311 311 311 312 312 313 314 314 314 315 316 317 315 313 303 310 313 313 313 312 311 308 307 305 308 306 306 306 310 311 312 314 315 315 312 313 314 316 320 319 319 319 322 324
312 311 311 311 311 312 312 314 313 313 315 317 318 315 309 304 312 314 314 311 312 310 306 310 308 305 306 305 309 307 304 307 310 313 312 314 308 310 317 319 319 320 321 323 325
311 311 310 310 311 311 312 312 313 314 317 318 316 316 305 311 314 312 312 310 312 312 310 311 310 306 303 305 303 301 304 299 306 309 311 310 303 311 316 318 318 320 321 322 325
311 311 310 310 311 311 311 312 315 316 316 316 315 312 303 312 307 309 311 307 309 310 310 310 308 304 303 297 295 297 294 299 301 308 308 308 305 312 315 315 315 318 320 321 322
312 311 311 310 310 311 311 311 316 315 317 317 313 307 307 301 306 308 311 309 306 306 304 304 304 300 300 296 289 293 294 297 298 304 306 305 306 310 313 314 314 317 319 321 321
311 310 309 310 310 310 311 315 310 308 310 303 302 300 301 306 308 306 309 306 306 304 298 302 297 295 298 299 299 297 295 294 299 304 304 303 305 307 312 311 313 316 318 319 321
310 310 309 310 310 310 312 308 306 308 300 306 304 303 305 306 300 303 308 302 301 297 300 298 294 298 299 298 296 296 294 294 298 301 302 303 303 307 311 311 312 314 316 318 321
310 310 310 310 310 310 310 308 313 312 301 300 303 302 302 304 299 300 304 302 299 296 297 294 296 299 297 296 294 294 293 293 294 298 301 301 299 303 308 311 313 314 316 318 319
310 310 310 309 307 312 310 312 314 313 297 296 299 301 303 303 299 304 305 302 299 295 296 296 299 297 295 294 295 291 296 295 294 293 290 300 291 301 305 307 310 312 314 316 319
310 310 309 307 313 310 311 315 314 310 288 296 298 306 303 300 299 300 306 302 296 296 297 294 295 295 295 294 296 293 296 295 294 292 293 294 292 298 305 303 307 311 313 316 318
310 309 308 312 316 312 315 315 311 295 284 293 298 297 297 299 298 300 300 303 302 296 298 296 301 299 297 299 297 298 294 294 294 292 286 292 292 294 299 304 307 311 313 315 316
309 308 309 314 309 315 316 309 295 289 296 293 294 296 296 295 295 296 295 295 292 289 289 294 295 299 299 295 298 295 292 284 282 283 283 293 292 295 303 306 308 308 311 314 315
307 306 311 315 316 315 312 301 288 292 293 297 296 296 293 294 294 294 294 292 296 293 291 287 286 294 299 295 293 293 291 284 278 280 284 293 287 295 304 307 309 310 312 314 313
305 315 315 317 316 314 305 293 292 293 295 293 295 292 292 294 294 294 294 292 294 295 288 288 288 296 297 299 297 293 289 294 287 287 283 287 294 301 305 305 307 309 310 311 313
310 310 312 315 316 310 300 293 294 297 297 296 290 292 290 292 292 293 292 295 292 295 297 293 286 294 296 299 297 295 297 286 289 280 278 286 289 292 299 302 306 308 309 311 314
310 307 311 313 312 305 294 294 295 299 298 294 293 292 293 291 293 291 292 295 297 295 297 294 290 290 294 293 292 292 291 292 291 288 282 280 287 300 302 303 306 309 310 311 312
309 302 311 310 301 301 295 294 293 297 299 296 296 294 293 293 291 291 291 294 297 296 291 296 292 287 289 295 297 295 293 292 285 284 289 287 287 300 305 307 307 309 309 311 313
303 304 312 309 296 297 296 294 296 296 297 295 294 296 296 292 288 292 293 297 298 295 293 295 290 284 286 291 293 290 292 294 293 292 287 283 288 302 306 308 309 308 309 309 311
303 299 305 309 304 296 295 294 293 298 297 297 295 297 295 292 293 291 292 296 298 297 298 297 292 286 283 287 288 286 290 292 293 287 287 289 290 294 297 304 306 306 308 310 309
305 300 300 296 299 298 298 296 292 292 297 297 295 294 292 290 291 291 294 294 298 298 298 294 288 290 291 292 292 291 290 291 290 291 286 290 290 294 296 297 304 306 306 307 308
299 297 299 297 298 297 294 295 293 294 295 294 293 295 293 289 291 290 292 293 293 298 295 295 288 291 288 291 291 289 291 292 292 292 292 292 291 298 300 303 303 304 305 305 307
305 304 297 297 296 295 296 295 294 296 296 297 296 295 293 294 298 298 300 300 298 295 293 290 289 289 284 290 289 285 290 292 294 294 293 289 295 299 300 301 302 304 305 306 307

GFSSW_sfc_thetae_066.txt.gz
Theta_e
313 314 314 314 314 314 315 315 315 316 316 317 317 317 317 317 316 312 308 312 314 327 324 311 311 313 317 313 314 318 307 303 304 305 306 312 310 313 315 313 315 319 321 328 334
313 313 314 314 314 314 314 315 315 316 317 317 317 317 317 317 312 309 315 317 323 326 311 309 307 311 309 313 313 310 307 307 311 311 310 312 312 311 311 312 314 317 323 328 330
313 313 313 313 314 314 314 314 315 316 317 317 317 317 317 316 311 309 319 317 324 320 312 311 310 308 306 309 312 311 306 311 312 314 315 313 312 314 311 309 313 315 320 326 327
313 313 313 312 313 313 313 314 315 316 316 316 317 317 318 314 299 314 319 318 324 317 312 308 307 305 303 303 308 306 311 313 313 315 314 313 316 312 313 313 317 317 323 326 326
312 313 312 312 312 313 313 314 314 315 315 316 317 317 315 311 305 314 323 320 316 314 308 306 304 305 302 305 306 303 307 311 314 315 314 315 313 314 313 317 319 318 319 324 327
311 311 311 311 312 312 313 314 314 314 314 316 317 318 312 305 312 314 313 313 313 310 309 308 305 305 302 303 304 307 306 307 310 311 313 312 312 314 316 319 318 319 319 319 324
312 312 311 311 311 312 312 313 313 314 315 316 318 316 310 307 312 313 314 311 312 311 306 309 309 305 304 300 306 305 302 304 306 308 309 312 308 309 316 318 317 318 319 321 321
313 312 312 311 311 312 312 313 313 314 317 319 319 314 309 311 313 312 311 310 312 312 310 310 310 305 303 304 301 298 300 296 304 305 307 308 302 312 316 315 315 317 319 320 323
312 312 311 310 311 312 312 312 313 317 318 318 314 314 306 312 308 309 310 306 308 309 310 310 307 302 302 297 295 296 290 293 297 305 305 305 302 310 315 315 314 315 318 320 321
312 310 310 311 311 311 312 312 316 316 317 318 315 305 310 303 307 307 310 309 305 306 305 304 302 298 299 296 288 291 293 294 294 299 301 301 303 308 312 312 313 316 316 317 321
311 310 311 310 311 311 311 315 310 309 313 305 304 304 303 307 308 306 309 306 307 304 298 302 297 294 297 299 299 297 295 294 297 300 299 298 301 305 310 311 311 314 317 315 317
311 310 311 311 311 311 310 309 307 309 300 307 306 304 306 306 300 304 308 301 301 296 299 297 294 299 300 299 297 296 293 293 296 299 298 298 297 302 308 309 312 313 314 316 320
310 311 311 311 310 310 312 309 314 313 301 303 303 302 303 304 300 301 304 301 298 295 296 294 296 300 298 296 294 294 293 293 293 296 298 296 294 299 304 308 311 313 316 317 317
310 311 311 310 306 313 311 314 315 313 295 297 299 302 303 303 299 306 306 302 298 294 296 295 298 297 296 295 296 290 296 295 294 292 287 296 287 297 301 303 307 310 313 316 317
310 311 310 309 312 310 311 315 314 310 286 298 299 307 303 299 301 301 307 301 295 295 295 293 295 295 294 295 297 293 298 295 294 291 290 291 288 292 299 300 305 309 311 315 318
310 310 310 313 314 313 315 315 312 295 286 294 299 298 298 300 300 301 300 303 302 296 296 295 300 298 297 299 298 299 295 294 293 291 284 288 288 289 294 299 304 309 311 314 316
310 309 307 314 308 314 315 310 295 289 297 294 295 297 296 296 296 297 295 295 293 289 289 293 294 299 300 294 298 296 291 284 282 282 282 291 288 291 298 301 303 307 311 313 316
308 307 312 313 316 314 311 301 289 294 294 298 296 296 294 295 295 295 295 292 297 294 290 287 285 293 299 294 292 293 291 284 277 279 282 290 284 290 301 303 305 309 311 313 314
306 316 314 317 315 313 304 293 292 294 296 294 295 293 293 295 295 295 294 293 294 295 288 286 287 295 296 297 296 293 288 294 287 288 283 286 290 296 301 302 305 306 309 312 314
308 313 313 314 314 307 299 294 295 298 298 297 291 294 290 292 292 293 292 296 294 297 298 292 285 293 294 296 298 294 296 287 288 279 277 284 286 288 294 299 304 306 307 312 315
309 306 313 314 311 304 295 295 296 299 299 295 293 292 293 292 293 291 292 295 297 296 297 294 290 290 294 290 290 292 290 290 291 287 280 279 285 297 298 301 301 306 308 312 313
309 300 312 313 301 302 296 296 295 298 300 298 297 295 293 293 292 292 291 295 299 298 292 295 291 286 288 296 297 295 291 293 285 284 287 285 285 300 301 301 300 299 310 312 313
304 305 314 311 296 297 300 298 298 297 298 297 296 297 297 293 289 293 294 298 300 297 294 295 289 283 285 290 293 291 291 292 292 291 286 283 285 299 299 298 299 299 302 310 311
305 299 304 303 305 299 297 297 295 299 297 298 297 298 295 293 295 292 293 297 300 298 301 299 291 286 282 286 290 287 289 291 291 287 287 287 289 294 295 294 298 300 303 309 310
305 300 303 295 297 298 299 298 295 294 298 299 296 296 294 290 291 291 294 295 297 301 298 296 288 290 290 291 291 290 290 291 289 291 286 288 288 293 296 297 298 301 303 306 307
298 297 299 297 300 298 298 297 295 296 296 294 293 295 296 292 292 290 293 294 294 297 296 296 289 290 288 291 292 289 291 291 291 292 292 292 290 297 299 300 300 302 304 304 306
305 304 299 297 299 296 295 296 295 297 297 298 297 295 293 295 298 299 300 300 299 296 295 293 290 287 284 290 290 285 290 291 292 293 293 288 294 299 299 300 301 302 305 305 306

GFSSW_sfc_thetae_069.txt.gz
Theta_e
314 314 314 314 314 314 315 315 315 316 316 317 318 318 317 318 317 310 303 309 313 326 326 310 308 308 309 310 312 309 298 298 301 302 304 309 307 311 312 308 311 312 317 326 330
313 313 314 313 314 314 314 314 315 316 316 317 318 318 318 317 310 306 316 322 324 326 308 304 304 305 302 304 308 303 297 300 308 309 307 309 311 311 309 308 309 311 324 325 328
313 313 313 313 314 313 313 314 315 315 316 317 317 317 318 317 306 306 323 324 325 322 309 307 306 303 298 302 304 305 300 307 309 312 312 311 311 314 310 307 309 308 313 321 323
312 313 313 313 313 313 313 314 314 315 316 316 316 317 319 311 296 306 326 327 326 317 311 307 302 296 295 295 301 298 306 309 310 312 311 309 312 311 312 310 315 316 315 315 319
313 313 312 312 312 312 312 313 314 314 315 315 316 318 312 306 305 317 328 326 317 313 309 304 297 295 294 298 301 299 301 303 307 310 311 312 310 310 311 315 317 318 317 315 316
312 313 313 312 312 312 313 313 313 314 314 315 316 318 309 302 308 313 316 312 311 306 305 303 299 300 295 295 294 298 300 301 303 303 305 308 309 311 312 316 317 317 316 316 315
312 312 312 312 312 312 313 313 313 314 314 317 318 315 306 304 308 308 309 305 307 309 305 305 305 300 299 295 298 298 293 297 301 302 302 303 301 305 313 314 314 315 316 317 317
312 311 311 311 311 312 312 313 313 313 315 318 319 311 303 310 306 306 305 305 308 309 307 306 306 300 296 298 297 293 292 286 294 300 303 301 294 302 308 312 311 313 315 316 317
312 312 311 310 311 312 312 312 313 314 317 319 310 306 304 311 306 307 304 304 306 306 306 308 302 297 297 291 287 289 284 287 291 297 297 297 296 303 306 306 309 312 314 315 316
311 311 311 310 311 312 312 312 313 314 315 315 313 303 306 303 305 306 306 307 304 303 302 301 295 292 290 288 281 285 286 289 290 293 294 292 294 299 302 305 305 309 312 314 315
312 311 311 312 312 311 309 306 304 303 305 305 306 304 304 306 308 304 308 305 304 301 293 296 290 287 291 293 294 293 291 290 293 297 294 293 294 297 300 300 300 305 307 311 313
311 312 312 312 311 311 305 302 303 302 296 305 304 304 305 305 299 304 307 299 297 291 294 291 287 294 297 296 294 292 289 289 293 296 294 293 292 296 298 298 300 301 305 309 312
311 311 311 311 311 307 304 307 309 307 294 301 304 301 301 303 299 300 304 299 295 291 291 288 292 298 295 293 292 291 289 289 289 294 294 292 289 292 297 299 301 302 304 307 311
310 310 311 310 306 308 308 310 309 307 289 296 297 300 301 300 297 305 305 300 295 291 292 290 295 295 293 292 293 288 295 294 292 288 283 291 281 289 293 295 297 300 302 304 307
309 310 310 309 304 305 306 308 308 304 283 297 298 304 301 296 299 300 305 300 292 292 291 289 290 291 290 292 296 291 296 293 292 288 284 286 282 287 291 291 294 297 300 303 306
309 310 310 310 306 310 310 309 306 291 284 292 298 296 295 298 299 301 300 301 299 293 293 292 296 295 295 297 296 296 292 291 290 285 279 284 284 284 288 290 294 297 300 302 306
309 309 307 309 305 310 308 305 289 285 297 292 293 295 293 293 296 296 295 291 288 285 285 290 291 296 298 292 294 291 286 279 277 277 278 287 284 286 292 296 297 297 300 302 303
307 307 310 310 311 309 304 295 285 294 292 297 295 294 291 295 294 295 292 290 294 291 285 282 280 290 297 292 287 288 287 282 275 275 279 288 281 286 295 298 299 301 301 302 303
306 309 308 313 313 307 297 286 289 292 295 293 294 291 291 294 294 293 290 290 293 292 284 283 285 294 295 295 293 287 283 289 282 284 278 282 287 292 297 299 300 300 301 301 303
302 305 307 310 309 303 293 292 293 297 296 295 289 292 287 290 290 289 289 295 293 295 293 289 282 291 293 295 294 290 292 281 282 275 275 280 282 284 292 294 296 297 297 300 303
303 302 309 310 307 298 289 291 294 297 297 294 291 290 290 289 290 288 290 294 297 294 294 290 286 287 290 288 287 287 285 287 287 284 278 276 280 295 293 294 294 296 299 300 303
303 296 308 309 295 299 293 296 298 296 299 297 296 293 291 292 289 289 290 294 298 297 290 292 286 281 285 291 295 293 289 287 282 281 283 281 282 297 296 296 298 297 299 303 306
298 301 310 308 289 290 296 296 298 296 296 295 294 295 294 290 287 291 292 298 299 296 292 292 284 279 281 285 290 288 289 289 286 284 281 279 282 296 297 296 298 298 301 303 305
300 294 301 301 298 293 291 293 294 300 297 297 295 296 293 290 291 289 291 296 298 296 301 296 287 283 279 283 287 285 288 289 286 281 282 284 286 292 294 295 297 298 300 301 302
299 295 297 289 292 294 294 295 293 294 297 296 293 293 291 287 289 288 291 293 296 299 295 291 284 288 288 290 290 288 288 289 287 287 283 287 287 291 294 295 298 300 301 301 302
294 293 295 292 296 295 295 293 292 294 293 292 290 293 292 288 288 287 290 289 289 294 290 293 286 288 286 290 290 288 290 291 290 290 290 289 289 296 298 300 299 300 301 301 303
301 300 295 293 293 290 290 292 293 294 295 296 294 292 290 292 296 295 294 294 293 291 289 290 289 284 280 288 287 282 289 290 290 292 290 285 290 295 295 297 298 300 302 306 308

GFSSW_sfc_thetae_072.txt.gz
Theta_e
314 314 314 314 314 314 314 314 315 315 316 317 317 318 318 318 317 309 302 309 312 322 325 312 306 306 306 307 310 308 296 296 301 301 303 309 304 311 312 308 309 311 316 325 328
313 313 313 313 313 313 313 314 314 315 316 316 317 317 317 318 309 305 313 324 324 325 307 302 302 304 299 302 306 302 295 298 306 307 306 309 309 311 310 310 309 309 314 317 324
313 313 313 313 313 313 313 313 314 315 315 316 316 317 317 317 304 307 323 326 326 324 308 305 304 301 295 299 301 302 298 304 306 308 310 309 310 313 310 306 311 309 311 313 314
313 313 314 313 313 313 313 313 314 315 315 315 315 316 318 311 294 306 326 328 327 317 309 305 300 293 292 293 299 295 301 305 307 309 309 307 311 309 310 310 315 316 317 314 313
313 313 313 312 313 312 312 313 313 314 314 315 315 316 310 304 305 312 329 328 321 313 308 303 297 292 289 293 296 294 298 301 302 304 307 311 309 309 309 314 317 317 317 316 314
312 312 312 312 311 312 312 313 313 313 314 315 317 317 308 299 311 315 319 314 311 306 304 301 296 298 293 291 291 294 296 296 298 299 300 300 301 307 310 315 315 315 315 315 316
312 311 312 311 311 311 312 313 313 313 314 316 318 315 304 299 310 308 311 305 306 307 303 303 302 299 296 293 295 295 291 294 296 298 297 301 298 299 305 309 310 313 314 315 316
311 311 312 311 311 311 311 312 312 313 314 316 318 310 299 314 311 304 304 302 305 306 306 305 303 297 294 295 295 291 288 284 292 296 298 298 292 301 304 304 305 309 313 314 315
312 312 311 311 311 311 311 311 313 314 315 316 309 304 302 314 305 304 301 301 304 304 303 307 301 295 295 289 285 286 282 284 289 295 294 293 291 297 301 301 301 304 308 313 315
312 311 311 311 312 311 312 312 312 313 313 314 311 301 305 302 304 304 304 304 303 301 301 299 293 290 288 286 280 284 284 286 286 292 293 291 291 295 298 299 298 298 301 306 312
312 311 311 312 311 311 306 303 298 299 304 302 305 304 307 305 307 303 306 304 303 298 290 293 288 285 288 289 291 290 288 287 290 294 291 290 291 294 296 296 296 298 299 300 303
311 311 311 312 311 311 302 300 301 301 294 303 304 305 308 304 298 302 305 298 295 289 292 289 285 292 294 294 292 290 287 286 290 294 291 290 291 294 295 295 295 296 298 299 302
310 310 311 311 310 305 300 305 307 303 292 299 303 301 301 301 298 298 302 298 294 290 289 285 290 295 294 291 290 289 287 288 289 293 292 290 288 291 295 296 297 297 298 299 299
309 310 310 310 304 303 303 307 305 303 288 296 295 298 299 298 295 303 303 298 293 289 290 288 293 292 291 290 292 286 294 293 291 288 281 289 280 287 290 292 294 296 296 297 299
309 310 310 309 299 300 307 305 305 302 277 296 296 302 299 295 298 300 303 298 291 291 289 287 289 288 288 292 294 290 294 291 290 287 283 285 280 285 289 289 292 294 295 297 298
309 310 310 305 301 305 308 304 303 289 280 292 297 295 293 295 296 299 298 299 297 291 290 290 293 294 294 296 294 295 291 289 287 283 277 282 281 283 285 289 290 295 298 301 303
308 309 306 307 300 306 303 301 287 282 295 291 291 294 292 292 294 295 293 290 286 283 283 288 289 295 297 290 292 289 284 277 276 276 276 285 282 284 290 293 296 298 299 301 302
307 307 306 306 305 306 300 293 284 290 290 296 294 294 290 293 293 294 291 287 292 289 282 280 279 289 295 290 286 285 284 277 275 275 277 286 279 284 294 298 299 300 300 301 301
305 302 305 307 309 301 295 284 286 290 294 292 293 289 289 292 291 290 289 289 292 290 283 282 283 292 293 293 290 285 281 286 281 282 278 280 284 290 295 296 298 298 299 298 300
297 300 303 306 303 300 291 290 290 295 295 295 287 291 286 288 288 287 288 294 293 294 290 287 281 290 292 293 292 288 290 279 279 274 274 279 281 282 290 293 295 295 296 297 300
299 298 305 305 303 296 286 288 293 298 298 293 290 289 289 287 287 287 288 292 296 294 292 287 284 285 289 286 284 285 283 284 282 280 273 276 278 291 292 293 293 295 298 299 301
295 292 305 303 293 291 288 293 298 297 298 296 295 292 290 290 287 288 288 292 297 295 289 290 285 280 284 291 292 290 286 287 276 276 281 281 280 293 293 294 296 297 298 299 301
292 295 304 303 286 286 292 294 297 296 294 293 292 294 293 288 285 290 291 297 297 295 290 290 282 278 280 284 288 286 288 287 286 284 280 278 279 295 295 295 297 296 299 300 302
294 289 293 294 292 288 288 291 292 299 296 296 293 293 290 287 289 289 290 295 296 294 301 296 285 282 277 282 284 284 288 289 286 282 281 282 284 289 293 295 296 300 301 301 303
291 288 290 284 287 288 289 292 291 291 295 293 290 291 288 284 286 286 289 291 294 297 294 290 282 286 287 289 289 288 288 289 286 286 282 285 286 290 293 294 297 300 302 302 304
288 288 289 287 290 290 291 288 290 291 290 289 288 291 289 284 286 285 288 287 287 291 289 289 283 286 285 289 289 287 288 290 289 289 288 287 286 293 295 296 297 299 302 303 304
294 293 290 288 288 285 285 288 290 291 292 293 290 288 287 289 292 292 292 291 291 289 287 286 284 284 281 287 287 282 288 290 290 291 288 285 287 292 292 295 296 297 299 300 303

GFSSW_sfc_thetae_075.txt.gz
Theta_e
313 313 313 313 313 313 313 314 314 315 315 316 316 317 317 317 316 308 300 304 310 320 323 309 305 305 304 301 308 306 299 297 299 301 301 307 303 309 313 310 312 310 312 314 326
313 314 314 314 313 313 313 313 314 314 315 315 316 316 317 317 309 304 312 318 323 324 304 300 300 302 297 299 302 300 293 299 305 306 305 307 307 310 310 310 310 311 314 315 319
313 313 313 313 313 313 313 313 313 314 315 315 315 315 316 316 303 306 323 323 327 323 305 303 302 299 293 295 299 300 295 303 306 307 308 307 307 310 308 306 310 310 311 313 313
312 312 313 313 312 311 312 312 313 314 314 314 315 316 316 310 293 306 326 326 327 313 306 303 298 292 291 292 297 294 299 303 305 307 306 304 309 308 308 309 314 315 315 313 313
312 312 312 312 312 311 311 311 312 313 313 314 315 317 309 302 304 314 329 326 318 312 305 301 296 291 288 291 293 293 296 299 299 300 302 306 304 306 306 309 314 315 315 313 313
312 311 311 312 312 312 311 311 311 312 313 314 316 317 306 297 311 315 316 314 313 307 303 301 295 296 291 290 290 293 294 295 296 297 298 298 300 301 304 307 308 311 312 312 313
313 312 311 311 311 311 311 311 311 312 313 314 317 314 303 299 310 308 312 304 306 307 301 301 300 296 294 291 293 293 290 292 295 296 297 299 295 297 304 305 305 306 307 309 313
313 312 311 311 311 311 312 312 311 312 313 315 318 310 296 311 310 306 304 304 303 305 304 302 301 296 292 293 292 288 286 283 290 294 296 297 291 299 301 301 301 303 304 305 308
313 312 311 310 311 312 312 312 313 313 314 315 307 301 300 315 304 305 302 300 302 302 302 306 299 294 294 287 284 285 280 283 288 292 292 293 288 295 299 298 298 299 300 302 303
313 312 311 310 311 312 312 311 311 312 313 315 310 300 303 302 303 303 302 302 300 300 299 297 291 288 286 285 279 282 282 285 285 291 291 290 291 295 297 297 297 297 298 300 301
312 311 311 310 311 312 307 301 297 296 303 298 302 303 306 307 305 301 304 302 301 296 288 291 286 283 287 288 289 288 286 285 289 292 290 289 290 292 295 295 294 296 297 297 299
310 310 311 311 311 311 302 300 300 299 293 301 302 305 308 308 298 300 304 296 294 288 290 287 283 290 292 291 289 288 286 285 289 294 292 289 290 292 292 293 294 295 296 297 298
310 310 310 311 310 304 300 302 306 300 291 297 301 300 300 301 296 297 300 296 292 288 287 284 288 293 292 290 288 286 286 287 287 292 292 289 288 289 292 293 295 295 296 296 296
309 309 310 310 303 300 301 307 303 301 288 295 295 298 298 297 294 302 302 297 292 287 289 287 291 290 288 288 290 284 292 291 289 286 280 289 279 287 289 290 292 294 293 293 294
309 309 310 310 298 300 305 304 302 301 277 296 294 300 296 293 295 298 302 296 290 290 288 286 287 287 286 289 293 287 293 290 289 285 282 284 279 283 290 289 290 291 296 299 301
308 308 309 304 299 303 305 302 302 287 279 291 295 293 292 294 295 297 297 297 296 289 289 288 291 290 290 294 293 294 289 286 285 281 276 282 281 281 283 286 289 296 299 300 301
307 308 306 305 298 303 302 299 287 280 293 289 290 293 290 290 293 293 292 288 285 281 281 286 287 293 295 288 290 287 281 275 274 275 276 283 281 283 289 293 295 296 298 299 300
306 306 306 305 302 303 299 291 281 289 289 294 293 292 288 291 291 292 290 285 291 287 282 279 278 288 293 288 284 284 282 275 271 274 276 284 278 282 291 297 298 299 299 300 299
304 300 303 306 307 300 294 282 281 287 292 291 292 287 287 291 290 289 287 287 290 289 282 281 282 291 292 291 289 283 280 284 279 278 275 279 283 288 291 294 296 296 297 297 299
297 299 302 306 302 299 290 288 288 293 294 293 286 289 284 286 286 286 286 293 291 293 289 285 280 288 291 291 290 286 289 278 277 274 273 277 279 281 287 290 294 293 295 298 299
298 297 303 302 302 295 284 287 292 298 296 292 289 288 287 286 286 285 287 291 294 292 291 287 283 284 287 285 283 283 281 282 280 278 271 273 278 287 289 291 292 293 296 297 298
295 291 303 302 290 287 286 291 296 296 297 294 293 291 288 288 286 286 286 291 296 294 288 289 284 280 283 289 291 287 285 284 275 276 279 277 279 291 292 293 294 294 297 298 300
292 293 303 299 284 284 289 292 294 294 294 292 291 292 291 287 283 288 290 295 296 293 289 289 282 278 279 282 287 285 287 286 283 281 281 277 279 292 293 294 295 295 297 299 301
292 287 291 292 290 286 287 289 290 297 295 294 292 292 289 286 287 286 288 294 294 293 299 295 283 282 277 280 282 283 286 288 287 281 280 281 283 288 291 292 295 296 298 300 302
289 286 289 283 284 285 287 290 289 289 292 291 289 290 287 282 284 285 288 289 293 296 292 289 282 284 286 288 288 287 287 288 285 286 282 284 284 288 291 292 294 297 299 301 304
288 287 288 286 288 287 287 286 288 290 288 287 286 289 287 283 285 283 286 286 286 290 288 287 281 285 284 288 288 286 288 288 288 288 288 288 286 292 292 293 294 296 297 299 301
293 292 289 287 286 282 283 286 288 290 291 292 289 286 285 288 291 291 291 291 291 287 286 285 283 282 280 286 286 281 286 288 289 290 288 284 289 292 292 293 294 295 297 298 301

GFSSW_sfc_thetae_078.txt.gz
Theta_e
314 314 313 313 313 313 313 313 313 314 314 315 315 316 316 316 316 305 300 304 309 319 322 307 303 304 302 301 308 308 299 295 298 300 300 305 303 308 312 309 310 310 310 312 328
313 313 313 313 313 312 312 313 313 313 314 315 315 316 316 315 308 303 312 317 318 322 302 299 298 301 296 299 304 301 295 298 305 305 304 306 307 306 308 308 307 310 313 314 317
311 312 312 312 313 312 312 311 312 313 313 314 315 315 315 314 302 302 323 322 323 321 303 301 301 298 293 297 300 300 295 301 305 306 307 305 305 309 306 304 307 307 310 313 314
313 312 312 312 312 312 312 311 311 312 313 314 314 314 316 307 291 304 326 324 324 310 304 302 297 293 292 292 297 294 299 303 303 305 303 303 306 305 306 306 311 312 313 313 312
313 313 312 312 312 312 312 311 311 311 311 313 314 315 306 300 303 313 328 323 315 309 303 300 293 290 289 290 292 290 295 297 298 298 298 301 299 300 302 306 308 310 311 311 311
313 312 311 312 311 311 311 311 311 310 311 313 314 316 302 295 306 313 315 315 311 305 302 300 295 295 291 289 289 292 293 294 296 296 297 297 299 299 302 305 305 307 307 307 308
313 312 312 311 311 311 311 312 311 311 312 314 315 314 301 298 308 308 309 305 306 306 301 300 298 295 293 289 291 291 287 290 293 295 294 297 294 296 301 303 302 303 304 304 305
311 311 311 311 311 312 313 313 312 313 313 314 316 308 295 308 309 309 305 304 304 305 304 301 299 295 291 291 290 286 285 281 288 293 294 295 290 297 299 299 299 301 301 303 302
311 312 311 311 311 312 312 312 313 313 314 314 304 299 298 313 304 304 302 299 300 301 301 305 297 292 292 286 283 283 278 281 287 291 292 291 287 295 298 297 297 298 300 301 302
311 311 310 310 311 312 311 311 312 313 313 313 310 298 301 302 304 302 300 300 299 298 297 295 290 287 285 284 278 281 281 283 284 289 290 288 289 293 296 296 296 297 298 300 301
309 310 310 311 311 312 307 300 296 294 302 295 299 300 305 308 306 300 302 300 299 294 287 290 286 282 286 287 287 287 285 284 287 291 290 288 290 291 294 293 293 295 296 297 299
309 309 310 310 311 311 300 299 299 298 292 300 300 304 307 307 299 299 302 295 292 287 289 286 283 289 290 289 288 286 284 284 288 292 290 289 289 292 293 293 294 295 295 296 297
309 309 310 311 311 303 300 301 303 298 290 296 300 299 299 303 297 296 298 295 291 287 285 283 287 292 290 288 287 285 284 286 286 290 290 287 285 287 291 293 294 294 295 295 295
308 309 310 310 303 298 299 305 303 300 286 292 293 297 296 296 293 300 300 296 290 287 288 285 289 289 286 286 288 283 291 289 288 284 278 287 277 284 288 289 291 292 292 294 299
308 309 309 310 297 299 302 303 300 298 276 294 293 298 294 292 294 296 300 295 289 288 287 286 286 285 285 287 291 286 291 288 287 283 280 282 278 281 287 286 288 290 295 298 299
308 308 309 303 298 302 303 301 301 285 278 290 294 293 292 293 293 296 296 296 294 288 287 287 290 288 288 292 291 292 287 284 282 280 275 280 279 278 282 286 289 293 297 299 299
307 308 305 303 297 300 301 298 285 279 292 289 289 291 289 290 292 292 290 288 284 280 280 285 285 291 293 286 288 286 280 274 273 273 274 282 279 282 288 291 291 294 296 298 298
306 306 306 305 301 302 298 289 280 287 287 293 291 290 287 290 290 290 288 285 289 285 281 278 278 288 292 287 283 282 281 274 270 273 273 282 277 281 289 292 296 298 298 298 297
304 300 302 304 305 299 292 279 281 286 290 289 290 286 286 289 288 288 286 286 288 287 282 281 281 290 291 290 288 281 279 282 277 277 273 277 281 287 290 290 295 295 296 295 297
297 299 301 303 301 296 288 286 286 292 292 292 284 288 283 285 285 285 285 291 290 292 288 285 280 288 290 290 289 285 287 277 275 273 272 276 278 279 285 288 290 293 294 295 297
298 295 301 301 300 293 283 285 291 296 295 291 288 286 286 285 285 284 286 290 293 291 289 286 282 283 286 284 282 282 280 281 279 275 270 272 276 286 287 289 290 292 294 294 297
294 290 301 300 289 285 284 290 295 294 296 293 291 289 287 287 285 285 285 289 295 293 287 288 282 279 283 287 289 286 283 282 275 275 278 278 279 290 289 290 293 293 296 296 298
290 292 301 298 283 283 288 291 293 293 292 291 289 291 290 286 283 287 288 294 294 292 288 288 281 277 279 281 285 283 286 285 282 280 279 278 279 291 291 291 293 294 295 298 299
290 286 289 290 288 285 286 288 289 296 293 291 290 290 287 285 286 285 286 293 293 293 299 294 282 281 277 279 281 280 285 285 283 281 280 281 283 288 290 291 292 294 296 296 299
288 285 287 281 283 285 286 288 288 287 291 290 287 288 285 281 283 284 286 288 291 294 290 290 282 283 285 286 287 286 286 287 284 285 282 284 284 288 291 292 293 295 296 297 298
286 285 287 285 286 285 287 285 286 288 287 286 284 288 286 282 284 283 284 283 285 288 287 285 282 283 282 286 287 285 287 287 287 287 286 287 286 293 294 294 293 294 296 297 298
290 289 288 285 284 282 282 285 286 287 289 290 288 286 284 286 288 289 290 289 289 285 284 285 285 283 279 284 284 280 285 286 287 288 286 283 288 292 292 294 294 293 296 296 298

GFSSW_sfc_thetae_081.txt.gz
Theta_e
312 312 313 313 313 313 312 311 313 313 314 315 315 316 316 316 315 310 303 308 311 321 320 310 306 307 307 307 312 316 304 300 301 301 302 310 309 313 316 314 315 316 316 319 324
315 313 312 312 312 312 312 312 311 312 314 314 315 315 315 315 310 306 315 316 318 320 306 303 303 305 303 305 310 308 303 303 307 308 306 309 310 310 310 311 312 314 317 318 320
314 314 313 312 313 312 312 312 312 312 313 314 314 314 314 314 305 306 322 322 320 321 307 305 305 304 301 304 305 305 301 307 308 310 310 308 308 310 309 308 311 310 312 315 318
314 314 313 312 312 312 312 312 312 312 312 312 313 314 315 312 294 311 326 324 325 313 308 306 302 300 299 299 303 300 304 307 309 310 306 306 307 305 307 309 312 311 313 314 316
314 313 312 312 311 312 311 311 311 311 311 311 312 314 311 305 307 317 326 323 316 310 307 304 300 299 297 298 299 299 299 301 302 301 302 303 302 303 303 308 309 311 312 312 313
313 311 311 312 311 311 311 311 311 310 310 311 313 314 308 299 311 315 319 315 312 309 307 306 302 302 299 297 298 298 298 299 299 300 301 300 302 302 304 306 307 309 309 309 309
311 311 311 311 311 312 311 312 312 311 312 313 314 315 304 303 313 313 315 311 312 310 305 307 305 301 301 297 299 298 294 296 298 299 299 300 297 298 301 304 305 306 307 308 309
312 312 311 311 311 312 313 312 312 311 313 313 316 313 299 309 314 313 312 310 310 310 308 308 306 302 300 299 296 294 293 291 295 297 299 299 292 299 302 302 302 303 305 306 308
311 311 310 310 311 312 313 312 313 313 313 315 312 306 302 316 307 308 310 304 304 305 307 306 304 299 299 295 292 291 287 289 292 297 297 296 292 298 302 301 301 303 303 304 306
310 310 309 310 312 312 312 312 315 315 314 314 312 303 307 305 309 306 306 304 302 303 302 300 299 296 296 294 286 288 289 290 290 295 297 295 295 298 300 301 301 301 302 303 304
309 309 309 311 311 312 310 308 304 301 308 300 301 302 305 310 311 303 305 303 302 300 294 296 294 291 293 294 293 292 290 290 293 296 295 294 294 296 299 299 300 301 302 303 304
309 309 310 311 311 311 306 304 303 305 298 302 303 303 307 309 301 303 306 299 297 293 294 293 290 294 294 293 292 291 290 290 293 296 294 294 293 296 298 299 300 302 302 303 302
308 308 310 311 311 308 306 306 309 305 298 299 302 301 302 306 300 300 303 299 295 292 292 290 292 294 293 292 291 291 290 290 289 293 295 293 290 293 297 299 300 302 302 302 302
308 309 310 310 307 305 305 309 308 306 293 294 297 300 301 302 296 303 303 300 296 292 292 292 294 292 292 290 293 288 295 292 290 289 284 292 283 290 294 295 298 299 301 302 305
308 309 309 309 305 305 308 309 307 306 282 296 296 303 300 297 297 299 303 299 294 293 293 290 291 291 290 291 295 290 295 292 291 289 288 287 285 289 293 292 295 299 300 304 306
308 309 309 306 305 308 308 307 308 292 282 292 297 295 296 297 296 299 299 301 298 294 293 293 295 294 293 295 295 295 292 290 289 288 282 286 286 287 290 293 295 299 301 304 306
308 308 307 306 305 307 308 307 293 286 294 291 291 295 293 293 294 295 293 293 291 287 287 290 291 296 296 292 293 292 289 283 281 281 281 288 285 288 293 296 297 298 300 305 306
306 306 308 309 310 309 306 298 286 289 290 295 293 294 291 293 293 293 291 290 292 291 289 286 284 292 295 292 290 290 289 283 275 278 281 286 282 288 295 298 299 301 304 305 305
305 309 310 311 309 307 300 290 288 290 292 291 292 289 289 292 292 292 291 290 293 294 288 287 286 293 294 294 294 288 286 289 284 284 281 284 288 293 296 296 298 300 302 302 304
305 307 308 308 307 305 297 290 290 293 296 294 288 291 287 289 289 290 290 294 293 295 296 291 285 291 293 294 293 291 293 285 286 277 276 282 284 285 291 293 297 298 300 302 304
305 303 307 306 307 302 293 292 294 298 297 293 291 290 290 289 290 289 289 293 296 295 296 293 290 288 291 290 289 289 288 289 287 286 279 278 283 293 293 295 296 299 301 301 302
301 298 307 306 298 293 292 293 295 295 298 296 295 294 291 291 289 289 289 292 298 297 292 294 291 285 288 293 293 292 290 290 284 282 285 284 284 296 296 297 299 299 300 302 303
297 298 307 305 292 292 293 293 295 294 295 294 293 294 294 291 288 291 292 296 297 297 294 295 289 282 284 288 291 289 290 291 290 288 284 280 284 296 298 298 299 299 301 302 304
296 292 296 296 294 290 289 290 292 297 294 294 293 294 292 290 293 290 290 294 295 296 298 297 291 286 281 285 289 286 289 291 290 284 285 285 287 292 295 297 299 300 302 303 303
294 291 292 288 289 290 291 291 290 290 294 294 292 291 289 287 288 288 291 292 294 296 295 295 287 290 289 290 290 289 289 289 288 289 284 287 288 292 296 297 299 301 301 301 302
292 291 293 290 290 290 290 289 288 289 290 290 289 290 290 288 289 287 289 290 289 293 293 294 287 289 286 289 289 287 289 289 290 290 290 290 290 297 299 300 299 300 300 300 301
294 295 294 288 289 288 287 289 288 289 290 292 291 289 288 290 293 294 294 294 293 291 291 291 289 286 282 287 286 282 287 289 290 292 292 288 293 298 297 298 299 300 300 300 302

GFSSW_sfc_thetae_084.txt.gz
Theta_e
316 316 315 313 313 312 313 313 313 313 313 314 315 316 316 315 316 314 309 311 312 320 322 313 312 311 312 312 315 318 307 304 306 305 305 310 309 316 319 316 317 319 319 321 323
315 315 315 314 313 313 313 313 313 313 313 313 314 315 314 314 313 312 319 316 318 320 310 307 308 309 308 308 312 310 306 307 312 312 309 311 311 314 313 314 316 317 321 321 322
314 315 314 314 313 312 312 312 313 313 313 313 313 314 314 315 312 308 323 321 320 322 309 310 310 309 305 308 308 309 305 311 312 314 314 312 311 314 311 310 316 314 316 318 320
314 314 313 313 312 312 312 312 312 313 312 312 313 313 315 315 299 314 326 323 324 316 310 307 307 305 304 303 308 304 309 310 312 314 313 312 313 310 311 313 313 315 316 317 318
312 312 312 312 312 312 312 312 311 311 311 311 312 313 315 310 308 322 326 325 317 311 310 306 304 304 302 304 305 304 306 308 311 312 313 312 309 308 308 312 315 315 315 315 316
312 312 311 312 312 312 313 312 312 311 311 311 312 314 312 303 314 319 318 315 313 312 309 309 305 306 304 303 302 305 305 305 307 307 308 306 307 307 308 310 315 315 313 314 314
312 311 311 311 311 312 313 314 312 312 312 313 313 316 309 306 316 318 317 313 313 311 307 309 308 305 305 302 305 303 300 303 303 304 302 305 301 302 308 308 307 311 313 314 313
312 312 310 310 311 312 313 313 313 312 312 314 315 316 304 312 319 316 317 313 314 313 311 311 310 306 304 305 301 299 301 296 303 303 303 301 300 304 307 305 304 306 308 311 313
311 311 310 310 311 313 313 313 314 313 314 315 316 313 303 317 311 311 314 307 308 309 311 309 308 304 303 298 297 298 294 296 298 301 301 300 299 305 306 305 303 304 306 308 309
310 309 309 310 312 312 313 313 315 316 316 317 315 308 309 305 310 309 311 309 305 306 304 304 303 300 299 297 290 293 293 294 295 299 300 299 298 302 305 304 303 304 305 305 307
310 309 310 311 312 312 314 315 310 309 311 305 304 305 306 310 312 308 308 306 306 304 299 301 298 295 297 298 298 296 295 294 296 299 298 298 298 301 303 304 303 303 304 306 307
309 310 310 311 311 312 314 309 307 309 302 307 306 306 309 310 302 305 309 302 301 297 299 297 294 298 298 298 297 296 294 294 297 299 298 297 297 301 302 303 305 305 304 306 307
309 310 311 311 312 313 312 309 315 311 303 302 305 305 305 309 301 302 305 303 299 296 296 295 296 299 297 296 295 295 294 294 294 297 299 297 295 298 301 303 305 306 307 308 307
309 309 310 310 310 315 311 314 315 313 299 297 300 304 306 306 300 306 307 303 299 295 296 296 298 296 295 294 296 293 297 295 293 293 289 296 287 295 298 299 301 304 306 307 308
309 310 310 309 314 311 311 316 316 312 288 298 299 307 304 300 301 302 307 303 298 297 297 294 295 295 294 295 297 294 297 295 295 293 292 292 289 294 297 296 300 302 304 307 308
308 309 310 312 315 313 316 316 314 298 286 295 300 298 299 301 300 302 302 305 303 298 299 297 300 297 297 298 298 298 296 296 296 293 286 292 290 292 295 297 299 302 304 305 308
308 308 310 314 312 316 316 313 298 290 298 294 295 298 298 297 298 299 298 298 295 291 292 296 296 298 300 296 298 297 293 287 285 286 286 292 289 293 298 299 300 300 301 304 308
306 307 312 317 319 316 314 304 291 294 294 298 296 297 295 297 298 297 296 295 298 297 293 290 288 295 299 296 294 294 293 287 280 282 287 292 286 293 299 300 301 302 304 306 307
304 317 318 319 317 315 307 295 294 294 296 294 296 293 293 295 295 295 296 295 297 298 292 291 290 297 298 298 297 293 290 295 289 289 286 289 292 296 299 299 300 301 304 305 307
312 314 314 315 316 312 302 294 296 298 299 297 291 293 290 292 292 293 293 297 296 299 300 295 289 296 297 298 298 296 297 288 289 281 281 287 288 291 295 296 299 300 301 304 307
313 308 312 315 315 306 297 296 297 301 300 296 294 293 294 293 294 293 292 295 298 298 300 298 294 293 296 294 292 293 291 292 292 291 284 283 289 298 297 298 299 301 304 305 306
308 301 313 315 302 302 296 296 295 297 300 299 299 297 295 295 294 294 293 295 298 299 295 298 294 289 291 296 297 296 294 294 288 286 289 288 288 300 300 301 301 303 305 306 308
300 303 313 311 296 298 298 296 297 296 297 297 296 298 298 296 292 294 295 298 299 298 296 297 292 287 288 293 295 293 294 295 295 293 288 286 289 300 301 302 303 303 305 306 308
301 298 303 304 301 295 294 293 294 299 298 299 298 299 297 295 297 294 294 297 299 299 300 299 294 290 285 288 292 289 291 293 292 288 289 289 291 296 299 300 302 304 306 306 307
301 298 297 296 298 295 295 294 292 292 296 298 295 295 294 292 293 293 295 295 297 299 298 297 291 292 291 292 292 291 291 292 290 291 287 291 292 296 299 301 303 304 305 305 306
299 296 300 295 296 294 292 292 291 292 293 292 293 294 295 292 293 291 294 293 292 296 295 298 289 291 289 291 291 289 292 292 292 293 293 293 293 299 301 303 302 304 305 304 305
300 302 297 295 293 292 292 291 291 292 293 294 294 294 292 293 296 297 297 297 296 294 293 293 290 288 285 290 289 285 290 291 293 295 294 290 296 301 300 300 302 304 305 304 305

GFSSW_sfc_thetae_087.txt.gz
Theta_e
316 316 316 316 315 314 314 314 314 314 314 314 315 316 316 316 316 315 312 314 316 321 320 312 315 314 316 314 316 318 308 304 306 308 310 313 309 314 319 317 319 320 320 323 325
316 316 316 315 315 314 313 314 313 314 314 314 314 315 315 316 314 314 321 323 317 320 312 309 309 312 310 311 312 310 307 308 312 313 312 314 312 311 313 316 317 318 323 324 323
314 314 314 314 313 313 313 313 314 314 314 314 314 314 315 316 314 313 324 322 320 320 317 311 312 312 308 311 310 309 305 311 313 315 316 314 313 315 314 311 315 315 320 320 321
314 313 313 313 313 313 313 313 313 313 313 313 313 314 315 317 304 315 325 323 322 322 311 308 309 307 306 306 310 305 309 310 312 314 315 314 316 314 315 314 318 319 320 319 319
313 313 312 312 312 313 312 313 312 313 312 312 312 314 316 313 312 321 325 324 320 314 312 309 306 306 304 307 308 306 307 310 312 313 314 316 314 314 314 317 318 319 320 318 317
312 312 312 312 312 312 312 313 313 312 312 313 313 314 315 307 317 321 320 318 315 314 311 311 307 309 306 306 306 308 307 308 310 310 312 312 313 314 314 317 316 315 317 319 319
312 311 311 311 312 312 313 314 314 314 313 313 315 316 312 309 317 321 317 315 314 312 310 311 311 306 307 305 309 307 303 305 307 308 308 311 306 307 314 316 313 314 317 319 321
312 312 310 311 312 313 314 314 314 314 313 314 316 319 310 314 319 316 317 313 314 314 312 312 312 308 307 309 305 303 303 298 305 306 307 306 300 308 312 313 311 311 312 314 317
311 310 310 311 312 313 314 314 315 315 315 316 318 317 307 315 311 315 315 310 310 311 312 311 310 306 306 300 299 301 296 298 301 306 306 304 300 307 311 312 311 311 311 311 312
310 311 310 311 312 313 313 314 314 315 317 319 318 310 312 306 311 311 313 311 307 308 306 306 305 302 302 299 292 295 297 298 298 303 303 301 301 305 309 310 309 309 310 311 313
310 311 311 312 312 313 313 318 314 314 314 309 306 308 308 311 313 310 311 308 308 306 301 305 300 297 299 302 300 299 298 297 300 303 300 300 302 304 308 307 306 307 309 310 310
310 311 311 312 313 313 315 311 309 311 305 309 307 308 311 311 305 308 311 304 304 299 303 300 296 301 302 301 299 298 297 297 300 302 301 300 300 303 306 306 307 307 308 309 310
310 310 311 312 312 313 314 311 316 315 307 304 307 307 307 309 304 304 307 305 302 299 300 297 300 302 299 298 297 298 296 297 297 300 302 299 297 300 304 306 306 307 308 309 310
310 310 311 311 308 316 313 314 317 317 302 299 302 306 307 308 302 309 309 306 302 298 300 299 302 298 298 296 298 294 300 299 297 295 291 300 290 298 301 302 304 305 306 307 310
309 310 311 310 316 312 314 317 319 316 292 301 302 311 307 303 304 304 310 306 299 300 299 297 297 297 296 297 299 296 300 298 298 295 295 295 292 296 301 300 301 304 307 308 311
309 309 310 314 317 315 318 320 317 302 290 298 303 301 301 304 303 305 304 307 306 301 301 299 303 300 299 300 299 301 298 298 297 295 288 293 293 294 298 300 302 305 306 308 309
308 308 310 319 315 320 320 315 301 294 302 297 298 301 300 300 301 302 301 300 298 294 294 298 298 301 301 297 300 299 295 288 287 287 287 296 293 295 300 302 303 303 306 307 309
306 305 313 319 321 320 317 307 294 299 298 302 300 300 297 300 300 300 299 297 301 299 296 292 290 298 301 298 296 296 295 288 282 283 286 295 289 294 302 304 304 304 305 306 307
304 317 319 322 320 318 309 298 299 300 299 297 298 295 296 298 297 297 298 297 300 301 294 293 292 300 300 302 300 296 292 297 290 291 288 291 295 300 301 301 302 303 305 306 308
313 315 317 320 321 315 304 297 301 302 300 300 294 297 294 296 296 297 297 299 298 301 302 298 291 298 300 301 300 298 299 290 291 283 281 287 289 290 297 299 301 302 304 306 308
316 310 316 321 319 308 298 300 302 304 302 298 297 297 297 296 297 296 296 299 300 299 302 300 296 294 298 296 295 294 293 294 293 291 284 283 288 299 299 301 301 303 304 307 308
312 304 316 319 303 305 299 301 297 300 303 300 301 299 297 298 296 296 296 299 301 300 296 300 296 290 293 299 300 299 295 295 288 287 290 289 288 300 302 303 303 303 306 308 309
306 307 315 312 299 300 304 301 301 299 299 299 299 301 302 298 295 297 298 302 302 300 297 300 294 288 290 295 298 295 296 296 295 294 289 286 289 302 303 303 305 305 306 307 309
305 302 308 309 305 299 298 298 297 301 299 301 300 301 299 296 299 296 297 300 301 301 302 301 295 292 287 289 293 290 294 295 293 289 289 290 291 295 298 301 304 305 306 308 308
308 304 303 298 300 299 299 298 295 295 300 300 298 298 297 294 296 295 297 298 300 303 299 299 291 293 293 295 294 293 293 294 293 293 289 292 292 296 299 301 303 305 306 306 307
300 299 302 299 301 298 298 296 295 295 296 295 295 296 297 294 295 293 296 296 295 299 297 298 291 292 291 293 293 291 293 293 293 293 293 293 292 300 302 303 302 303 305 305 306
303 305 301 300 298 297 295 295 294 295 296 297 296 295 295 296 298 298 299 299 298 296 295 294 292 290 286 292 292 288 291 292 293 295 294 289 294 300 299 300 303 305 306 306 306

GFSSW_sfc_thetae_090.txt.gz
Theta_e
316 316 316 316 315 315 314 314 315 315 315 315 316 316 316 316 316 313 310 318 317 325 318 309 310 314 314 311 313 313 305 301 304 305 308 315 310 314 316 316 318 319 319 322 324
315 315 314 314 314 314 314 314 314 314 315 315 316 315 315 316 312 310 321 327 326 319 309 306 305 311 309 309 310 307 303 304 309 310 309 312 313 313 310 312 314 318 322 324 323
315 315 314 314 314 314 314 313 314 314 314 315 315 315 314 315 313 314 324 323 322 316 311 313 310 309 307 309 308 307 303 306 309 312 313 312 312 314 310 308 313 316 320 321 320
314 313 313 313 313 313 313 313 314 313 314 314 314 314 314 314 304 312 325 323 320 317 316 310 307 305 304 304 308 304 307 308 309 310 310 310 314 312 313 313 318 319 322 320 318
312 313 313 313 313 313 313 313 314 314 313 314 314 314 314 312 312 317 326 321 317 317 312 309 305 304 302 305 307 305 307 308 310 310 310 311 310 312 313 318 320 319 319 319 320
312 312 312 312 312 312 313 314 314 314 314 314 314 314 312 308 319 317 319 317 318 314 313 311 308 308 304 304 304 307 307 307 308 308 309 308 309 311 315 319 317 317 317 319 319
312 312 311 312 312 313 313 314 315 315 315 314 314 315 310 311 317 320 318 315 315 313 310 312 311 307 307 303 307 306 302 305 306 307 306 309 305 307 314 318 316 316 317 317 318
311 311 311 311 312 313 314 315 315 315 315 315 315 314 311 319 318 316 317 314 314 314 312 313 312 308 305 307 305 302 303 297 303 305 306 306 298 307 313 314 312 313 314 315 318
310 311 311 312 313 313 314 314 316 317 316 315 315 314 309 316 310 315 315 311 312 312 311 312 309 305 305 300 297 300 294 297 299 305 305 304 299 306 309 310 311 313 314 313 314
312 311 312 312 313 313 314 314 317 314 315 318 317 310 313 308 310 312 314 312 307 308 307 306 304 300 300 298 291 294 295 297 297 302 304 302 302 306 308 307 309 310 313 313 313
311 311 312 313 313 313 313 316 312 312 316 311 308 311 309 312 314 310 312 309 308 305 299 304 299 296 298 300 300 299 297 296 299 304 301 301 301 303 306 307 306 309 312 312 313
310 311 312 313 313 313 313 312 310 312 304 313 309 309 311 312 305 308 312 304 303 298 302 300 297 302 303 301 300 299 296 296 300 302 301 300 299 303 305 306 308 309 309 311 313
310 310 311 312 312 312 315 312 316 316 305 309 307 306 308 309 304 305 309 305 301 299 299 297 299 303 301 299 297 297 295 295 295 299 301 299 297 299 303 306 307 309 311 312 311
310 310 311 311 310 317 313 315 317 318 300 303 302 306 309 308 303 310 309 305 302 298 300 299 302 300 299 296 298 293 299 299 297 295 290 300 289 298 301 303 305 307 308 309 310
310 310 310 310 313 311 313 317 319 316 291 302 303 312 308 304 305 305 310 305 299 299 300 297 299 298 296 297 299 295 300 298 297 295 294 294 291 295 300 299 302 305 307 309 311
309 309 309 315 313 317 318 320 316 300 291 299 303 301 301 303 303 305 305 307 305 300 300 299 304 301 299 301 300 301 297 297 297 294 287 292 291 292 296 299 303 305 306 308 309
308 308 307 317 314 319 319 314 300 294 304 299 299 302 301 300 301 303 301 300 297 294 294 298 299 301 302 297 300 298 294 286 285 286 285 294 292 295 301 303 304 304 305 308 310
306 305 311 316 320 320 316 305 293 301 301 304 301 301 297 300 300 301 300 297 301 299 295 291 290 298 302 298 295 296 294 287 281 283 286 293 288 294 302 305 306 306 307 308 308
304 317 316 321 321 317 307 296 297 301 302 299 299 296 297 300 300 298 298 297 299 301 294 292 292 302 301 302 300 295 292 298 290 291 287 290 294 299 302 302 303 303 304 305 307
308 316 316 323 321 314 302 296 300 305 304 301 295 298 295 297 297 298 297 301 299 302 303 297 291 298 300 301 301 297 299 290 290 282 280 287 288 289 297 299 301 301 302 305 308
310 311 318 321 318 307 297 299 303 305 304 299 296 296 297 296 297 296 297 300 302 301 302 299 296 294 298 295 294 295 293 294 293 291 284 282 286 298 298 301 302 302 304 305 307
311 304 317 317 303 305 301 302 302 303 305 302 301 299 297 298 296 296 296 299 304 302 297 300 295 290 293 299 300 298 295 295 289 286 289 288 288 301 302 301 304 303 305 306 308
305 307 316 313 299 299 302 300 301 300 300 299 298 300 301 298 294 297 298 303 303 301 298 299 294 288 290 294 298 294 295 295 294 294 288 285 288 302 302 302 303 304 305 307 309
306 301 308 308 307 301 298 297 297 302 300 301 298 300 298 296 299 295 297 301 303 301 305 301 294 291 285 289 293 290 291 294 292 286 289 289 291 296 299 299 301 302 305 305 304
307 303 305 297 299 300 300 299 296 296 300 300 297 297 296 293 295 294 297 299 301 305 301 299 289 292 292 293 293 293 292 293 290 290 287 291 291 295 299 301 303 304 304 304 306
299 298 301 299 303 300 299 297 295 295 295 294 293 295 296 293 294 292 295 295 294 298 298 299 289 293 290 293 292 290 293 293 293 293 293 294 292 299 302 303 302 303 304 305 307
305 304 301 298 300 298 297 297 296 296 296 297 295 294 293 295 298 298 299 298 297 294 294 294 291 290 285 291 290 287 292 293 294 295 294 290 296 301 299 302 303 304 305 305 306

GFSSW_sfc_thetae_093.txt.gz
Theta_e
316 316 315 314 314 313 315 314 314 315 315 315 315 316 316 316 316 310 305 314 314 327 323 309 305 306 307 302 305 305 296 295 298 300 303 309 306 311 316 314 316 317 318 317 318
315 315 314 314 313 313 314 314 314 315 315 315 315 315 315 315 309 306 317 329 327 326 308 304 300 302 301 302 302 299 294 297 305 306 305 308 308 309 308 309 312 315 319 321 318
313 313 313 313 314 314 314 313 314 315 314 314 314 314 314 313 306 309 331 328 326 322 307 305 304 302 298 301 300 301 297 301 303 307 309 308 309 311 306 303 309 310 315 319 315
313 313 313 313 313 313 313 313 314 315 315 314 314 314 314 310 298 308 329 329 327 313 307 308 305 295 293 294 301 296 302 304 304 306 305 304 307 306 307 306 312 313 318 317 313
312 312 313 312 312 312 312 313 314 314 315 315 314 315 311 306 307 317 329 326 315 313 312 309 298 295 293 297 299 298 300 304 305 305 305 306 304 305 306 314 316 316 317 315 314
311 311 311 311 312 312 312 313 313 314 315 315 315 315 308 301 312 318 316 313 314 311 311 308 302 302 297 296 295 299 300 301 302 301 302 302 303 303 307 315 316 316 314 314 315
311 311 311 311 312 313 313 313 313 314 315 316 315 313 305 304 316 314 315 311 313 311 307 308 307 302 300 297 300 300 295 299 300 300 299 302 298 300 307 312 313 314 313 315 315
311 311 311 312 313 313 314 315 315 315 316 316 315 311 303 317 314 313 312 311 312 310 309 308 307 302 298 300 299 295 294 289 297 300 301 299 292 301 305 306 312 313 314 315 313
312 312 312 312 313 314 314 314 315 318 317 316 309 306 306 315 309 312 311 309 310 310 308 310 303 298 299 293 289 291 287 290 294 301 300 298 295 301 304 304 303 306 310 313 312
312 312 312 312 313 314 314 314 316 314 314 314 313 305 311 310 309 310 311 311 307 305 304 302 297 293 291 288 282 288 288 291 292 298 299 297 297 301 303 303 303 302 303 306 309
311 311 312 313 313 313 311 309 306 305 308 308 309 307 311 312 314 309 310 307 306 301 293 298 291 288 292 294 295 294 292 292 295 299 296 295 295 298 301 300 299 300 301 304 306
310 310 311 312 312 313 307 306 307 305 299 309 311 311 311 311 304 307 310 301 300 294 297 294 290 297 300 299 297 294 292 291 295 298 297 295 295 297 299 298 299 300 301 305 305
310 310 310 311 311 309 307 311 313 308 298 304 309 309 304 306 303 304 306 303 298 294 294 291 295 301 299 296 295 293 291 292 292 296 297 294 292 294 299 300 301 302 302 304 306
310 310 310 310 308 310 306 313 310 313 293 302 303 303 305 305 301 309 309 303 298 293 295 294 298 298 295 294 295 289 296 296 294 291 285 294 284 291 296 297 300 302 302 302 304
310 310 310 308 305 304 310 311 312 310 285 301 302 308 306 301 303 304 309 303 295 296 295 293 295 294 294 295 297 292 297 294 294 289 287 289 284 289 294 294 297 299 302 301 304
309 309 309 311 307 308 312 314 312 295 288 298 302 300 298 301 302 303 303 304 302 296 296 295 300 297 296 299 298 299 294 292 290 286 282 287 286 287 291 294 297 301 301 303 303
308 307 304 309 308 314 314 308 293 289 305 298 298 300 298 298 299 300 298 295 291 287 288 294 295 299 300 294 296 293 285 278 277 278 280 290 287 289 296 299 300 301 300 301 305
306 306 307 308 313 314 310 299 287 298 300 305 301 299 295 298 298 299 296 293 297 296 291 288 286 295 300 297 292 291 288 283 277 277 281 291 286 289 300 300 303 303 301 302 304
305 311 309 315 314 313 302 289 293 299 302 300 299 295 295 298 298 298 295 293 296 296 288 288 289 299 300 299 297 291 287 290 287 288 282 284 289 294 300 301 301 301 301 300 301
301 307 312 317 318 309 298 293 296 302 303 300 292 295 291 294 294 294 295 300 298 302 298 292 286 296 298 299 297 294 296 285 287 278 276 283 284 285 294 296 299 299 296 297 300
303 307 314 318 314 302 292 296 301 303 302 298 296 294 294 293 294 293 294 299 301 300 300 294 289 290 294 292 289 289 289 290 290 286 278 277 281 293 292 296 297 299 301 298 299
301 300 314 314 299 300 296 299 299 300 303 300 299 297 295 295 294 294 294 298 303 301 295 295 292 285 288 295 298 297 291 292 285 282 287 283 283 297 295 296 297 299 301 303 302
296 301 313 310 293 294 298 299 300 299 299 298 297 298 298 294 290 295 296 301 301 299 296 294 287 282 285 289 294 291 293 293 292 290 283 282 283 298 299 298 300 299 301 302 303
298 298 304 305 303 296 295 296 296 301 299 299 297 297 295 293 295 293 295 299 300 299 307 301 291 287 282 287 290 288 290 292 290 284 283 286 287 292 296 298 299 300 302 302 302
302 298 300 293 294 296 297 297 295 294 297 297 294 294 292 288 290 290 293 294 297 302 300 293 285 288 290 292 292 290 289 291 289 290 285 287 289 292 295 298 298 299 301 302 302
296 294 297 294 298 296 296 295 293 295 294 292 291 293 292 289 290 288 290 290 290 293 290 294 285 288 287 291 291 288 290 291 291 291 291 291 290 297 298 299 299 301 302 301 303
301 300 295 295 295 294 293 294 294 295 296 296 293 291 290 292 295 294 293 293 292 289 287 286 286 284 280 288 288 282 289 291 292 293 292 289 293 297 296 297 297 298 301 302 305

GFSSW_sfc_thetae_096.txt.gz
Theta_e
315 315 314 313 313 313 313 313 313 314 314 314 315 315 316 316 315 308 301 307 312 324 324 309 305 302 304 299 302 301 292 291 295 297 300 305 304 309 314 314 316 316 313 315 316
313 313 313 313 313 314 313 314 313 313 314 314 314 315 315 315 307 304 312 322 329 329 307 303 299 299 296 299 299 297 291 293 301 303 302 306 303 306 306 308 311 315 317 317 315
312 313 313 314 314 313 313 313 313 314 314 314 314 315 315 313 303 309 330 325 331 324 306 303 301 298 292 296 298 296 292 298 300 302 305 306 306 308 305 302 307 311 314 315 313
312 312 312 312 313 312 313 313 313 314 314 314 314 314 315 309 296 306 332 330 327 311 304 303 302 295 290 290 296 293 299 301 302 304 303 301 305 303 304 304 309 314 316 313 312
312 312 312 312 312 312 313 313 313 313 314 314 314 314 308 303 306 318 330 327 318 310 307 303 299 292 289 292 294 293 297 301 303 303 303 304 302 303 303 309 314 313 315 313 310
312 311 311 312 312 313 313 314 314 313 313 314 314 315 306 298 313 320 318 316 311 307 309 307 303 299 294 292 291 296 297 298 299 299 299 300 302 301 305 308 313 313 312 312 312
312 312 312 312 313 313 314 315 314 315 314 314 315 312 304 300 313 314 312 308 311 312 309 307 305 299 297 294 296 296 292 295 296 297 297 299 297 298 303 309 310 312 312 312 313
312 312 311 312 313 314 314 315 315 315 317 315 315 309 297 312 310 309 310 311 311 309 307 306 304 299 296 296 297 292 290 286 294 298 299 297 292 298 302 302 304 310 311 312 313
312 312 311 312 313 314 314 314 315 317 317 316 307 303 301 319 312 314 312 309 309 308 306 309 301 296 296 290 286 288 284 287 291 297 297 295 293 299 302 301 301 308 310 311 311
312 311 312 312 313 313 313 314 314 314 314 314 312 302 307 308 308 309 308 309 306 304 302 299 294 291 289 286 281 285 285 288 289 294 294 293 293 298 300 300 301 301 308 309 311
311 311 311 311 312 312 309 305 303 304 305 304 307 305 308 313 311 305 309 306 305 299 291 295 289 286 290 291 292 291 289 288 292 296 293 291 292 295 298 298 300 298 298 300 307
311 310 310 311 311 311 306 301 306 302 296 308 309 309 313 313 304 306 309 299 297 292 294 291 287 294 296 296 294 292 289 289 293 296 293 292 291 295 296 297 297 298 299 300 303
311 311 310 311 310 307 304 308 313 308 297 303 307 306 308 308 304 303 304 301 296 292 291 288 293 298 296 294 293 291 289 289 290 294 294 291 289 292 296 297 299 299 299 302 304
310 310 310 309 304 304 302 309 309 308 293 300 303 305 307 303 300 307 307 301 296 292 293 290 295 296 293 292 292 287 294 294 292 289 282 291 281 289 293 294 297 298 297 298 302
310 310 309 308 301 300 307 309 309 307 284 304 300 306 303 300 302 303 307 301 294 294 293 291 293 292 291 293 295 290 295 292 292 287 283 286 282 288 291 292 294 297 298 298 299
310 310 309 306 303 306 309 310 307 293 286 298 300 298 297 299 300 302 302 302 300 294 293 293 297 295 294 297 296 297 292 289 287 284 279 284 283 285 289 291 294 298 300 302 303
309 309 305 305 302 307 308 305 292 287 303 297 299 297 295 295 297 298 296 293 290 285 286 292 293 297 298 292 295 291 284 278 276 277 279 286 284 287 292 296 298 297 300 302 303
307 307 305 305 303 307 305 298 285 296 298 304 299 298 294 296 297 298 296 291 294 292 287 286 285 293 298 293 290 289 287 283 275 275 280 288 282 288 297 299 300 301 301 300 300
305 301 304 307 305 306 298 287 291 297 300 298 298 292 293 296 295 294 293 293 294 293 287 286 287 297 298 297 294 289 285 288 286 288 281 283 287 293 297 297 299 299 300 300 300
299 302 307 311 312 303 293 290 294 301 299 299 292 295 290 293 292 291 292 298 297 299 296 292 285 294 296 297 295 292 294 285 287 278 278 282 284 285 289 294 296 297 300 301 301
298 300 311 314 310 298 288 293 299 301 301 296 294 293 293 292 293 292 293 297 301 298 296 292 289 290 293 290 288 289 288 288 286 285 281 277 280 289 291 293 294 296 299 299 301
294 290 308 309 296 297 294 299 298 299 301 299 297 295 293 294 291 292 292 296 301 300 293 294 289 284 288 293 295 293 289 287 280 279 285 284 284 296 295 296 296 297 301 300 302
295 295 307 305 290 291 296 298 299 298 298 294 295 295 295 292 288 293 294 299 299 298 294 293 286 281 283 287 291 290 292 290 289 288 283 282 281 297 298 297 298 297 300 300 302
293 294 299 302 300 293 293 294 295 301 297 296 294 295 292 290 292 290 291 296 298 300 304 298 288 285 281 286 290 288 290 291 289 282 282 284 287 292 295 297 298 298 297 298 302
295 294 295 289 291 292 294 294 293 292 296 296 292 293 290 285 288 289 291 292 295 299 297 292 286 288 289 291 291 290 289 290 288 288 283 286 288 291 293 295 296 298 300 300 301
291 291 294 292 295 293 293 290 292 292 293 292 289 292 291 287 288 287 290 290 289 293 289 290 283 287 286 290 290 287 289 289 289 289 288 289 289 294 296 297 297 297 300 299 301
298 298 293 292 294 291 291 293 292 294 294 294 292 290 289 291 294 293 293 292 292 289 286 285 284 281 278 287 287 281 286 289 290 292 291 286 291 295 294 296 296 296 299 300 302

GFSSW_sfc_thetae_099.txt.gz
Theta_e
314 314 313 313 313 312 313 313 313 313 313 314 314 314 314 315 314 306 300 305 310 320 323 307 305 300 301 297 299 301 291 290 293 297 300 304 304 308 310 311 314 313 313 313 316
313 312 313 313 313 313 313 313 313 313 313 313 314 313 313 313 307 302 310 317 323 329 309 301 299 297 294 296 298 295 290 292 299 300 301 301 302 304 305 306 307 309 314 314 315
312 312 312 312 312 312 312 312 312 312 314 313 313 313 313 313 302 307 326 322 325 327 305 302 299 297 290 294 296 295 292 296 299 299 300 300 301 304 303 301 305 306 311 312 316
312 312 312 312 312 312 312 312 312 313 313 313 313 313 314 308 295 306 331 327 331 315 303 299 298 294 289 289 294 291 297 298 300 302 301 300 302 300 302 302 306 308 311 312 310
312 312 312 312 313 312 313 313 313 312 312 312 312 314 306 299 303 313 330 327 314 306 301 301 298 292 289 291 292 291 295 297 300 300 299 302 300 300 301 304 307 310 312 310 308
312 312 312 312 312 312 313 313 313 313 313 312 313 314 304 294 310 319 316 314 309 306 306 305 301 297 291 291 291 293 293 295 296 297 297 297 299 299 302 305 305 306 310 309 309
312 312 312 312 312 313 314 315 314 314 313 314 314 312 302 296 309 316 310 305 307 308 306 308 306 299 295 293 294 294 290 293 294 295 295 297 295 296 302 304 304 307 309 310 309
313 312 311 312 313 314 314 314 314 315 315 316 315 306 294 306 309 306 308 308 310 310 310 308 303 297 294 294 294 290 288 285 292 295 297 295 291 298 300 301 303 304 307 311 310
313 312 311 312 312 313 314 313 314 316 318 316 305 301 299 316 311 312 309 308 308 308 305 308 299 294 294 288 286 286 282 284 289 294 294 294 290 297 300 299 298 300 303 308 310
313 312 311 311 312 312 312 313 315 314 314 313 311 301 304 306 308 309 309 310 306 302 299 297 292 290 287 285 280 283 283 286 286 292 292 291 291 294 297 297 297 298 301 306 308
312 312 311 311 311 311 307 303 301 300 304 300 304 302 306 312 311 304 306 304 302 297 290 293 288 285 288 289 290 289 287 286 290 293 292 290 291 293 295 295 295 296 297 302 307
312 311 311 311 310 310 305 299 303 301 297 305 306 306 310 311 305 305 307 298 296 290 292 289 286 292 294 293 291 290 287 287 290 294 291 290 290 293 293 294 295 296 296 296 299
311 311 311 311 310 306 303 305 309 306 295 301 305 305 305 308 304 305 304 299 294 290 290 287 291 296 294 292 291 289 287 288 288 292 291 290 288 290 293 295 297 298 297 297 300
311 311 311 310 302 302 301 307 308 305 291 299 300 303 306 305 298 309 306 300 294 291 291 289 293 293 291 291 291 285 292 292 291 287 282 289 282 287 290 292 294 296 296 296 297
311 311 310 308 297 300 305 306 307 306 283 302 301 307 304 299 300 301 305 299 294 293 291 289 291 291 289 291 293 289 294 291 290 286 282 284 280 283 288 289 292 294 296 298 298
311 311 309 304 300 304 309 306 306 293 286 299 299 296 294 297 298 300 300 301 299 293 292 292 295 293 292 295 294 295 290 287 285 282 277 283 282 282 286 289 291 294 297 299 300
311 310 305 305 299 303 306 304 290 285 301 297 297 297 294 294 295 297 295 292 289 284 285 290 291 294 296 290 293 289 283 277 276 276 279 285 282 285 289 293 294 296 297 298 299
308 307 306 304 300 303 304 296 284 293 295 300 298 297 293 295 294 296 294 289 293 289 285 284 284 291 296 292 289 287 285 279 275 275 279 286 280 286 294 297 298 298 298 297 298
306 300 301 305 304 302 297 286 286 294 296 295 296 292 291 295 294 293 291 291 293 292 285 284 286 295 297 297 295 289 284 286 282 284 278 282 286 292 295 296 297 297 297 296 297
299 299 303 309 306 302 292 288 294 298 299 297 291 294 290 293 292 292 291 297 296 298 294 290 284 293 295 296 295 292 293 283 283 277 275 281 283 284 290 291 295 296 296 296 298
294 293 304 310 307 297 287 291 297 300 299 296 293 292 292 291 292 291 292 296 298 296 296 291 287 288 292 290 289 289 288 289 287 284 277 277 280 288 289 292 294 297 297 297 297
293 290 299 306 296 294 292 297 298 299 301 298 297 294 291 292 290 291 292 295 297 298 292 294 289 284 288 292 296 293 290 290 283 282 285 281 281 294 293 295 297 298 300 300 299
293 291 303 303 289 287 294 296 299 297 296 294 294 294 293 290 286 290 293 297 298 299 296 295 286 281 284 288 292 290 292 289 286 287 281 277 280 294 297 295 297 299 300 301 301
291 289 294 298 294 291 290 293 293 299 297 296 294 295 291 289 291 289 289 295 296 296 304 297 289 285 281 285 288 287 289 291 289 283 283 283 285 290 293 293 296 298 299 301 298
292 289 290 286 290 293 293 292 291 290 295 296 292 292 290 284 287 287 291 291 294 297 295 292 285 288 289 290 291 289 289 289 286 288 284 285 286 289 292 293 295 297 300 301 301
288 288 290 288 293 293 293 290 291 292 292 291 289 290 290 286 287 285 288 289 288 293 290 290 283 288 286 290 289 287 288 288 289 288 287 287 286 293 296 296 296 297 299 299 300
295 298 293 288 290 290 290 291 292 293 294 295 293 290 288 291 293 293 293 293 292 289 287 286 284 282 279 285 285 280 284 286 288 290 289 284 289 291 296 296 296 297 298 297 299

GFSSW_sfc_thetae_102.txt.gz
Theta_e
312 313 313 312 313 313 312 313 313 313 313 313 313 314 313 313 313 304 297 303 309 320 321 305 304 300 299 296 298 299 291 289 294 296 299 303 301 304 307 306 309 312 312 313 320
312 312 313 312 312 312 312 312 313 312 312 313 313 313 313 312 304 300 309 316 320 324 306 300 296 296 294 294 295 293 288 291 298 299 298 300 299 301 303 302 304 307 312 314 321
313 313 312 312 312 311 311 312 312 313 313 313 313 313 313 311 300 305 323 320 321 323 304 300 298 295 289 293 293 292 290 294 297 299 299 298 299 301 300 298 302 302 309 311 316
313 313 312 313 312 312 312 312 313 313 313 313 313 313 314 308 293 306 331 324 325 319 301 297 297 291 289 289 293 290 295 297 297 299 298 298 300 298 300 301 304 306 308 309 313
313 313 312 312 312 312 312 312 312 312 311 311 312 313 304 296 301 318 329 326 312 303 299 297 295 291 288 289 291 290 293 296 298 297 297 299 298 298 298 303 304 304 307 309 313
313 313 312 312 313 313 312 312 313 312 312 312 312 313 301 291 306 322 318 309 305 301 303 303 298 295 290 289 289 292 292 293 294 294 294 295 297 297 300 304 303 302 302 307 308
314 313 312 312 312 313 314 314 314 313 312 312 313 311 299 294 306 315 310 304 307 307 304 306 305 298 294 290 292 292 288 291 293 293 294 294 293 293 300 301 302 303 304 306 307
314 313 312 312 312 313 314 314 314 314 313 313 315 305 293 301 308 308 306 305 307 307 307 307 305 295 292 293 292 288 287 284 290 294 296 294 289 296 299 298 299 301 303 308 309
314 313 312 312 312 312 313 313 314 315 317 316 303 299 298 314 310 311 307 305 307 307 306 309 298 292 292 287 285 285 282 283 288 292 292 292 288 295 298 297 296 297 299 301 304
314 313 312 312 312 312 311 312 316 315 314 313 310 299 302 304 309 311 308 308 306 302 298 296 291 288 286 284 278 281 282 284 285 290 290 289 289 294 296 295 295 295 297 299 301
314 313 312 312 311 311 306 302 298 297 303 299 301 299 304 310 311 303 306 306 303 296 289 291 287 284 287 288 288 287 285 285 288 292 289 289 289 292 294 294 294 295 295 296 297
313 313 313 312 311 310 305 298 302 301 296 304 304 304 307 309 302 306 304 297 294 289 290 288 285 290 291 291 289 288 285 285 289 292 289 289 288 291 293 293 294 295 295 296 297
312 312 312 312 310 304 300 304 307 304 295 300 303 302 303 306 301 303 302 297 292 288 288 285 289 294 292 290 289 287 285 286 287 290 290 287 285 289 292 293 295 296 296 296 297
311 312 312 311 301 301 300 305 306 304 290 296 299 302 304 305 299 309 305 299 292 290 289 288 291 291 289 289 289 284 291 290 289 286 281 287 281 285 289 290 293 295 294 295 296
311 312 311 309 296 298 303 305 305 304 282 301 300 306 304 300 299 299 303 298 292 291 290 289 288 288 288 290 291 288 291 289 289 284 281 283 279 283 287 288 290 292 294 295 297
310 311 310 303 299 301 305 303 305 291 283 298 298 298 298 298 297 298 299 299 298 292 290 290 293 292 291 293 293 293 289 285 283 281 276 282 281 281 285 289 290 293 295 296 297
310 310 307 304 296 301 302 302 288 285 298 295 295 297 294 293 294 296 294 291 289 283 284 289 290 292 294 289 292 288 283 277 276 276 279 285 280 285 288 292 292 293 295 296 298
308 307 304 304 299 300 302 295 284 290 292 298 297 297 294 295 294 295 293 289 292 289 284 282 283 290 294 290 289 285 284 279 275 274 280 285 278 284 291 294 296 296 296 297 297
306 300 298 304 304 300 297 287 285 292 296 295 295 292 291 295 295 294 292 291 293 290 285 282 284 294 295 294 292 286 282 286 281 281 278 281 285 291 294 294 295 296 296 296 297
298 295 298 306 304 300 290 287 291 297 297 297 290 294 289 292 292 292 292 297 296 297 293 289 283 292 295 295 295 292 294 285 284 278 274 279 281 283 289 291 295 295 295 296 297
294 293 299 303 304 297 287 289 296 299 298 295 293 291 291 289 291 291 291 294 296 295 295 292 287 288 291 289 289 289 288 289 288 286 280 279 280 288 289 291 293 294 296 297 297
295 290 299 304 295 290 290 295 298 297 298 296 296 293 291 291 289 290 291 293 298 299 293 293 290 285 288 292 295 294 290 291 284 282 284 279 282 293 291 293 295 295 297 298 300
291 291 300 301 289 288 291 295 296 294 294 294 294 294 294 290 286 290 292 297 296 297 295 293 287 283 284 288 292 291 292 291 289 286 281 279 282 293 294 294 296 295 297 299 302
292 288 291 293 295 292 289 291 291 297 296 296 294 295 292 289 291 288 289 293 296 295 300 296 288 285 282 285 289 287 290 291 288 283 280 282 285 289 292 294 295 295 296 299 300
290 287 288 283 287 290 291 292 290 290 295 295 293 292 290 285 287 286 290 290 293 296 294 293 284 287 289 290 289 288 288 289 286 287 283 284 284 288 290 292 293 296 297 300 300
289 287 289 287 288 289 292 290 291 292 293 291 289 292 291 286 287 285 287 288 287 291 291 290 282 286 285 288 288 287 288 287 288 288 286 287 286 290 292 295 297 295 297 297 298
292 293 293 292 290 288 289 290 292 293 294 295 293 290 289 290 293 293 293 293 290 288 287 285 283 282 279 285 284 280 284 286 286 288 287 283 287 290 292 294 295 295 297 296 297

GFSSW_sfc_thetae_105.txt.gz
Theta_e
313 313 313 313 313 312 312 312 312 313 313 313 313 313 313 313 312 308 301 306 311 316 320 310 309 306 307 304 306 307 301 299 301 301 303 307 305 310 311 310 311 314 316 319 327
313 313 313 312 312 312 312 312 312 313 313 313 313 313 313 313 307 304 311 314 318 322 308 306 303 304 304 302 304 303 299 299 303 305 305 305 304 306 306 307 308 311 314 320 331
313 313 313 313 313 312 312 312 313 313 313 313 313 313 312 312 303 310 323 319 322 323 309 306 304 303 301 303 301 300 298 300 302 306 306 303 304 306 305 305 307 308 311 314 323
314 314 313 313 312 312 312 312 312 313 312 312 312 311 312 309 299 311 330 323 324 321 306 304 303 300 299 299 302 299 301 302 303 305 304 303 305 303 305 306 310 311 312 313 314
314 313 313 313 312 312 312 312 312 313 312 312 312 311 309 301 303 323 329 324 321 311 306 302 301 300 298 299 300 299 300 302 304 304 303 304 301 302 303 308 310 310 310 311 313
315 313 312 312 312 312 312 313 313 313 312 312 312 312 307 298 311 326 321 316 310 307 304 305 303 302 299 298 299 300 299 300 301 302 302 301 302 302 304 309 308 309 310 311 313
315 314 313 312 312 312 312 313 313 313 313 312 312 311 303 299 310 323 316 309 308 307 305 310 309 303 302 298 300 300 297 299 301 301 301 302 299 300 306 306 307 308 310 311 314
315 314 314 312 312 313 313 313 312 313 313 312 313 311 298 305 314 312 311 308 310 310 311 312 312 303 302 302 299 297 296 294 298 299 301 301 295 302 305 304 305 306 307 308 311
315 314 314 313 312 312 312 312 313 313 314 314 310 306 301 316 311 314 310 308 310 310 311 310 305 300 299 297 295 294 292 293 295 299 299 299 295 301 304 303 304 306 307 307 309
314 314 313 313 313 311 311 313 316 316 315 314 311 303 306 306 312 313 311 311 309 306 302 302 301 298 296 295 289 290 290 292 292 297 297 297 297 301 304 302 304 304 306 307 308
314 313 313 313 313 311 309 310 305 303 308 305 304 301 304 311 314 308 312 310 307 302 297 298 295 292 295 296 294 293 292 292 295 299 296 297 298 300 303 303 304 305 306 307 309
313 313 313 313 313 311 308 304 307 308 301 306 306 306 308 310 303 308 310 303 301 296 297 295 292 297 296 295 294 293 292 292 296 298 296 297 297 300 302 302 304 304 306 307 309
312 312 312 312 311 308 305 307 311 310 301 303 305 305 306 308 303 304 305 302 298 295 295 293 295 297 295 295 293 293 292 293 293 296 296 296 294 297 300 302 303 305 306 307 307
311 311 311 311 304 304 304 309 311 310 297 299 301 304 307 307 302 310 307 303 298 295 295 295 298 295 294 293 295 291 296 296 294 292 289 295 287 295 298 299 301 304 305 307 307
310 311 311 310 306 301 308 310 310 310 287 302 301 310 308 303 302 304 307 303 297 296 296 294 294 293 293 295 296 294 296 295 294 293 291 292 289 293 296 296 299 303 305 306 308
310 310 310 306 305 306 308 309 311 296 286 299 301 299 300 302 301 302 303 305 303 298 296 297 298 297 297 297 297 298 295 293 292 291 286 292 290 291 294 297 300 303 304 305 306
309 309 307 308 303 306 306 310 295 289 300 295 296 299 297 297 299 299 297 297 294 291 291 295 296 299 298 295 298 296 293 286 285 285 285 294 290 293 298 300 302 301 303 306 308
307 306 306 307 307 306 309 302 287 291 293 299 298 299 295 297 296 297 296 294 297 295 292 290 289 295 298 296 295 295 294 287 281 283 286 291 287 292 299 302 302 303 305 306 307
305 304 304 308 308 308 305 292 290 294 296 295 297 294 293 296 296 296 295 294 296 295 290 288 289 297 299 300 298 295 290 296 289 289 286 289 293 298 300 300 301 303 305 305 307
301 299 304 308 309 306 298 290 294 299 298 297 291 295 292 293 294 294 293 298 297 299 299 295 288 296 297 298 297 295 298 290 291 282 281 288 288 290 296 298 300 302 303 304 307
301 300 305 308 310 304 295 293 297 301 299 296 294 292 292 291 292 292 292 294 297 296 299 296 292 292 296 294 293 294 292 293 293 291 284 283 288 298 297 299 300 301 302 303 305
300 295 306 308 301 296 295 294 297 298 300 297 296 295 293 293 291 290 291 294 298 297 293 297 294 288 291 298 297 296 294 294 289 286 289 288 288 300 299 300 301 301 302 304 307
297 296 306 306 294 293 296 295 297 296 296 295 296 296 296 292 289 292 293 298 298 296 293 296 291 286 288 293 295 293 295 294 293 290 287 284 288 299 300 300 301 301 302 303 306
298 293 297 299 298 295 293 294 294 299 296 297 296 296 293 292 293 289 291 295 297 296 299 297 292 289 284 288 292 289 291 293 291 286 287 287 290 294 296 297 299 302 303 304 306
296 291 293 289 293 292 294 293 290 290 296 297 294 294 290 288 289 289 291 292 294 296 296 294 287 289 290 291 291 289 289 289 288 289 286 289 289 293 296 297 300 302 302 302 303
296 294 296 294 293 292 292 291 290 292 293 291 291 292 292 289 289 288 290 290 290 294 293 295 288 289 286 289 289 287 289 289 289 290 290 290 289 297 298 300 300 300 299 298 301
299 299 296 293 291 290 291 291 291 293 293 295 294 291 290 292 295 294 294 295 294 292 291 291 289 286 282 287 287 284 288 289 290 291 291 288 293 298 298 299 299 299 299 298 300

GFSSW_sfc_thetae_108.txt.gz
Theta_e
315 314 314 314 313 313 313 313 313 313 314 314 314 314 314 313 313 313 305 311 313 322 319 312 311 312 312 312 312 313 305 304 305 305 306 311 311 315 316 315 316 319 320 323 328
315 315 314 314 314 313 313 313 313 314 314 314 314 314 313 313 311 307 317 314 320 321 313 309 307 310 309 309 310 307 302 305 311 311 309 311 311 311 311 313 314 316 318 321 329
316 315 314 314 314 313 313 313 313 314 313 313 313 313 312 313 309 312 327 319 320 322 313 312 310 309 307 309 308 307 303 306 307 310 312 311 309 313 310 309 314 314 317 318 318
316 316 315 314 314 313 313 313 313 313 314 312 312 311 312 313 302 316 328 322 325 319 312 309 308 305 305 304 308 303 307 307 308 308 308 306 309 307 309 311 315 315 316 317 317
316 315 315 314 313 313 313 313 314 313 313 312 312 312 313 307 307 326 330 325 321 315 310 308 306 306 303 305 306 305 306 307 308 308 308 308 306 306 307 311 313 314 314 315 316
316 315 315 314 313 313 313 312 313 313 313 313 311 312 310 304 317 323 317 318 317 313 309 309 306 308 305 304 304 306 307 306 307 307 308 305 306 307 308 311 311 312 313 315 316
316 316 314 314 314 313 313 313 312 313 314 313 312 313 306 305 313 322 319 316 315 313 309 309 310 306 306 302 306 304 301 304 305 306 305 307 303 304 309 311 310 311 313 314 316
315 315 315 314 314 313 313 313 313 313 313 313 313 313 303 308 320 320 317 311 312 313 314 314 314 308 307 307 304 301 302 298 304 305 305 304 299 306 309 309 309 310 311 312 315
315 314 314 314 314 313 312 312 314 314 314 314 314 311 303 316 310 317 315 311 313 314 314 312 312 306 305 301 299 300 296 298 300 305 304 303 300 305 308 308 308 310 310 311 313
314 313 313 314 314 313 311 314 315 316 316 316 314 306 308 307 314 316 316 314 311 310 309 308 306 302 302 300 293 296 296 297 297 302 302 301 301 304 308 307 308 309 310 311 312
314 313 312 313 313 312 311 317 313 311 313 308 308 302 308 314 317 314 316 313 312 308 301 305 300 297 300 301 300 297 296 296 299 302 301 301 302 304 307 308 307 308 310 311 312
313 312 312 312 312 311 313 310 311 312 305 312 311 310 311 312 307 310 316 307 305 300 302 300 296 301 300 299 298 297 296 297 300 302 300 301 300 304 306 307 308 308 309 310 312
311 311 312 312 311 310 311 312 317 315 306 306 309 308 309 311 306 307 310 308 303 300 299 297 299 301 299 298 296 298 297 297 296 300 302 300 298 301 305 306 307 309 310 311 311
310 310 311 310 308 312 309 316 317 316 301 303 304 307 309 310 304 311 311 307 303 299 300 299 302 298 298 297 299 295 300 299 298 297 293 300 291 299 302 303 306 307 309 310 311
309 310 310 309 310 310 313 317 318 315 291 305 304 313 309 306 306 307 312 306 301 300 299 297 298 297 296 298 301 297 300 299 298 297 296 296 293 298 303 300 303 306 308 311 312
309 310 309 311 312 314 314 315 315 300 289 301 304 303 303 305 303 306 307 309 307 302 302 300 303 300 300 301 301 301 299 299 300 297 291 296 295 295 299 301 304 307 308 310 310
309 309 311 315 310 312 314 314 299 292 303 298 299 302 301 301 302 302 302 301 298 294 294 299 300 303 303 299 302 300 297 291 290 291 289 299 295 298 303 305 305 306 307 310 312
307 307 309 314 316 314 313 305 291 294 297 302 301 302 299 300 299 300 300 297 301 299 296 293 291 300 303 300 298 300 299 292 286 288 292 296 291 298 303 306 307 307 309 310 311
305 317 314 315 316 315 308 295 295 297 299 298 300 298 299 300 300 299 298 298 299 300 294 294 293 300 300 302 301 298 295 301 294 295 291 294 298 303 305 305 305 306 308 309 310
310 312 311 316 318 314 302 294 297 301 301 300 295 297 295 297 297 297 297 301 300 302 303 298 292 300 300 301 302 299 302 294 295 286 285 291 293 295 299 302 305 305 306 308 310
312 309 312 316 318 310 300 299 300 303 302 299 298 297 297 296 297 297 297 300 301 301 302 300 295 296 300 296 295 297 296 297 297 294 288 287 292 302 302 303 303 306 307 308 308
310 305 313 316 307 307 302 299 298 300 303 301 301 299 297 297 296 296 296 297 302 300 296 299 296 292 295 301 301 299 296 296 290 290 294 291 292 305 305 305 304 305 305 307 308
305 306 314 315 301 302 303 299 300 300 300 299 299 300 301 298 294 297 298 301 302 300 296 299 293 289 292 296 300 297 298 297 298 296 292 289 292 303 304 304 305 303 304 307 308
305 301 306 307 304 300 298 298 297 301 300 300 299 301 299 296 298 294 295 298 300 299 299 298 295 292 287 291 294 292 295 297 295 289 292 291 295 298 302 300 302 303 306 307 307
304 299 300 298 300 298 298 297 294 292 298 299 296 296 294 290 293 292 294 296 297 298 297 295 290 292 292 293 293 292 292 293 292 293 288 293 294 298 299 300 302 305 306 305 305
301 300 304 300 296 295 294 294 292 293 292 292 292 293 292 290 292 289 292 292 292 296 294 296 290 292 289 292 292 289 292 292 293 293 294 294 293 300 302 303 303 304 302 304 305
307 306 302 295 295 295 294 292 293 293 295 297 294 292 290 292 296 298 298 297 294 293 293 293 292 289 285 289 289 286 291 292 293 295 294 291 296 302 301 301 302 303 304 303 304

GFSSW_sfc_thetae_111.txt.gz
Theta_e
317 316 316 315 315 314 314 314 314 314 315 315 315 316 315 315 314 314 309 312 316 327 321 316 312 313 315 313 315 314 306 304 308 309 311 316 313 319 320 318 321 324 323 327 339
317 316 316 316 315 315 314 314 315 314 314 314 315 315 314 314 311 308 318 325 323 320 312 312 309 311 310 310 312 309 304 306 312 314 313 314 313 316 314 315 317 320 322 327 331
317 317 316 315 315 315 314 314 314 314 314 314 313 313 313 313 310 313 332 326 324 321 312 314 312 310 308 310 310 309 304 308 310 313 315 314 314 316 313 311 316 317 322 323 322
317 317 317 316 315 314 314 314 314 314 314 314 313 313 313 314 304 322 327 324 321 316 313 312 311 307 307 306 310 305 309 309 310 311 310 312 315 313 314 314 318 318 319 319 320
317 317 316 316 315 314 314 314 314 314 314 314 313 313 313 310 310 330 325 323 318 317 312 310 308 308 305 308 309 307 308 309 311 310 310 310 308 309 310 314 316 317 317 317 319
316 316 316 316 315 315 314 313 313 313 314 315 314 313 312 305 321 324 318 316 316 316 312 311 309 311 308 308 307 309 308 309 310 310 310 307 307 309 310 314 313 314 315 317 319
315 316 316 315 316 315 314 314 313 313 314 315 314 314 309 309 318 319 317 318 317 314 310 313 313 309 310 306 310 309 304 307 308 308 308 310 305 305 311 312 311 312 313 315 318
314 315 315 315 315 315 315 313 313 314 314 315 314 316 307 315 321 319 319 315 316 316 314 313 314 310 309 311 307 304 305 300 306 307 308 307 300 308 312 311 310 311 313 314 316
314 314 314 314 314 314 314 313 314 316 315 315 315 314 306 313 311 319 318 311 312 314 316 315 314 309 308 304 301 303 298 300 302 307 307 305 302 308 311 310 310 311 312 313 314
313 313 313 313 313 313 313 313 315 315 316 317 317 308 309 307 314 316 318 315 312 312 310 309 308 304 305 302 295 298 299 301 301 305 305 303 303 307 310 310 310 311 312 313 314
312 312 312 312 313 312 312 317 316 314 314 312 311 305 307 314 317 314 316 313 313 309 303 307 301 299 302 304 304 302 301 300 303 306 303 303 303 305 309 309 309 310 311 313 314
312 312 312 312 312 311 313 310 314 315 306 314 312 312 312 314 309 311 316 308 308 303 305 304 299 304 305 304 302 300 299 299 302 305 304 303 303 306 308 308 310 310 311 312 314
310 311 311 311 311 310 313 312 319 319 308 310 311 310 310 312 307 309 313 309 306 303 303 300 302 304 302 301 299 300 298 299 299 303 304 302 300 302 306 309 310 311 313 313 313
310 310 310 310 308 318 313 318 319 319 302 305 307 309 310 310 306 313 314 309 306 301 302 302 305 302 300 299 300 296 302 301 300 298 294 303 293 302 305 306 308 309 310 311 313
309 310 310 309 312 313 316 320 320 318 293 307 306 316 311 306 307 308 313 308 302 302 302 300 301 300 299 300 302 299 303 301 301 299 298 298 295 299 305 303 306 309 310 312 313
309 310 310 312 312 317 319 319 318 301 291 302 306 304 304 306 305 308 307 309 308 303 303 302 306 303 302 303 303 304 301 301 301 299 292 297 297 298 301 304 306 309 310 312 313
309 309 310 317 315 317 318 315 302 295 304 300 301 304 304 303 304 304 303 301 297 295 296 301 301 304 305 301 304 302 299 292 291 292 291 301 298 300 306 307 308 308 310 312 314
307 307 313 318 320 318 317 308 295 298 299 305 304 304 301 303 303 303 302 300 303 301 297 295 293 301 303 300 298 301 300 293 288 290 294 301 296 301 308 309 309 310 311 312 313
305 321 319 319 320 320 312 300 299 300 301 300 302 299 300 302 302 302 301 300 303 304 297 295 295 304 305 305 303 298 295 302 296 298 293 296 301 306 308 308 309 309 310 311 312
312 318 316 320 324 317 306 298 300 304 303 302 297 300 297 300 300 301 300 304 302 304 306 301 294 302 303 305 304 302 304 294 296 288 287 293 296 297 303 304 307 308 309 311 312
314 312 317 323 323 312 301 302 303 306 305 301 300 299 300 299 300 299 299 303 304 304 305 303 298 299 302 300 299 299 297 299 298 295 289 289 294 304 305 306 306 307 309 310 311
315 307 317 322 307 311 304 304 299 304 306 304 304 302 300 299 299 299 297 300 305 302 298 301 299 294 297 303 305 303 299 299 294 292 296 294 295 306 307 309 307 308 309 310 309
309 310 318 318 303 305 306 303 304 302 303 302 301 301 304 299 296 300 300 304 303 304 300 301 295 291 293 299 302 299 301 300 299 298 293 290 293 306 306 306 307 308 307 307 308
308 303 309 314 309 303 301 300 299 304 302 303 301 303 299 297 300 297 299 301 303 301 300 300 298 292 289 293 296 294 297 299 297 291 293 293 296 301 302 303 306 306 306 307 308
309 304 304 302 303 303 303 301 298 296 301 302 299 297 296 293 296 295 298 299 301 301 300 297 291 294 295 296 297 295 295 296 294 296 291 294 294 298 301 303 304 306 306 306 307
303 302 308 306 303 301 297 300 297 296 296 295 296 296 297 293 293 292 295 297 295 298 296 298 291 294 291 295 294 292 295 295 295 295 294 295 295 302 304 304 304 305 305 303 304
311 311 306 298 301 300 300 298 297 298 298 299 297 296 293 296 299 299 298 300 299 294 293 293 293 291 289 293 292 289 293 294 295 296 295 291 295 302 301 302 304 305 305 304 306

GFSSW_sfc_thetae_114.txt.gz
Theta_e
318 318 318 316 316 316 316 316 315 315 315 315 315 316 317 316 315 313 307 310 316 323 325 310 312 308 310 310 312 313 303 302 305 307 310 318 316 320 322 318 323 326 325 334 340
318 318 318 318 316 315 315 315 315 315 315 315 315 315 315 315 310 306 316 326 328 326 309 306 308 307 306 308 309 307 302 303 310 312 311 314 316 315 315 316 316 321 323 328 336
317 318 317 317 317 315 315 315 315 315 315 315 315 315 314 313 307 309 335 327 328 321 309 310 312 308 305 308 307 307 303 307 308 311 313 313 314 316 313 312 315 317 321 323 328
317 317 317 316 316 316 315 314 315 315 316 315 315 314 314 312 302 321 332 331 329 313 307 306 309 305 304 303 308 303 307 308 309 310 312 311 315 313 314 314 318 319 320 320 321
316 316 316 316 316 316 316 315 314 315 314 315 315 315 312 308 308 324 329 325 317 311 306 308 307 306 302 305 307 305 307 309 310 310 310 311 310 312 312 317 318 318 318 317 320
316 315 315 315 315 316 316 316 314 313 313 314 315 315 309 300 321 323 317 313 311 308 309 311 308 310 306 306 306 309 308 308 309 309 310 307 308 309 310 313 313 314 314 316 317
315 315 315 315 315 316 316 316 315 313 314 315 316 314 308 306 318 320 317 313 314 314 311 312 312 309 309 305 310 308 305 307 307 309 307 309 304 305 310 311 311 312 313 314 317
314 314 314 315 314 314 315 315 314 314 315 315 316 313 305 316 316 318 316 315 318 316 314 314 313 309 308 309 307 304 304 299 306 307 308 307 299 307 311 310 309 310 312 313 315
313 313 313 314 314 314 314 313 314 316 316 315 313 311 305 314 311 319 318 312 312 314 315 315 311 307 307 302 300 302 296 298 301 307 306 305 300 307 310 311 310 311 312 312 314
313 312 312 313 313 313 313 312 317 315 315 317 315 309 311 308 312 316 318 315 310 310 310 308 307 304 303 300 293 296 297 299 299 304 305 303 302 306 309 309 309 310 311 313 314
313 312 312 312 312 312 311 314 314 312 315 309 309 306 307 311 315 313 316 312 312 309 302 306 300 298 301 303 303 302 301 300 303 306 304 303 303 305 308 309 308 310 311 313 315
313 312 312 311 311 311 310 308 312 315 306 315 314 312 312 313 307 311 315 306 307 302 305 303 298 303 305 304 302 301 299 299 303 305 304 303 301 305 307 308 309 310 312 313 315
312 311 311 311 310 309 308 312 317 316 305 308 313 311 310 311 307 308 311 308 305 302 303 299 302 305 303 302 300 300 298 299 299 302 304 302 299 302 306 309 310 311 313 314 314
312 311 310 310 308 315 313 318 319 318 300 304 307 309 311 310 304 312 313 309 305 301 303 302 306 303 301 299 300 296 302 300 299 298 293 302 291 301 304 305 308 309 311 312 314
312 310 310 309 310 313 316 319 320 317 291 307 307 316 312 304 307 308 314 309 302 302 302 299 301 300 299 300 302 298 302 301 300 297 297 297 293 298 304 302 306 309 311 312 314
311 310 309 315 312 316 320 318 316 299 291 302 307 304 304 305 306 308 307 309 308 302 303 301 306 304 302 303 303 303 301 300 300 297 291 296 295 295 299 304 306 309 311 312 312
310 309 307 316 316 319 318 313 300 295 307 301 302 304 303 301 303 304 302 300 296 293 294 299 300 303 304 300 303 301 297 290 289 289 288 298 295 298 305 307 308 309 310 312 314
307 306 313 317 321 320 316 306 295 301 301 305 304 304 301 303 303 303 302 299 302 299 296 294 293 301 304 301 297 298 298 290 285 287 291 300 295 299 309 311 311 311 312 313 313
304 318 319 321 320 319 312 299 298 301 303 301 302 298 299 304 303 303 302 301 303 303 296 295 295 304 305 306 303 298 294 300 293 295 291 295 300 306 309 309 309 309 310 311 314
307 314 318 320 322 317 307 300 302 305 304 303 297 301 296 300 300 301 301 305 303 305 307 301 294 303 304 306 306 301 303 293 294 286 285 292 295 296 304 304 307 308 309 311 314
311 312 318 322 321 311 301 303 305 307 306 302 300 299 300 299 300 299 300 304 306 304 306 303 299 298 302 299 299 299 297 298 297 294 288 288 293 304 304 307 308 308 310 311 311
312 306 317 321 308 310 303 305 300 304 307 304 304 302 300 301 299 299 298 301 307 305 299 302 299 293 296 303 305 303 300 299 293 291 295 294 293 307 307 307 308 307 310 311 311
307 308 318 317 301 302 306 303 304 303 303 303 301 303 303 300 296 300 301 304 304 303 300 302 297 290 292 298 301 298 300 301 301 301 293 290 292 306 306 306 307 307 309 310 309
307 302 309 310 309 303 302 301 300 305 302 303 302 303 300 298 301 297 298 302 304 303 302 302 297 293 288 293 297 293 295 297 297 292 292 294 295 301 303 303 305 307 308 308 308
309 304 306 301 303 303 303 301 299 298 302 303 299 299 296 292 296 296 298 299 302 303 300 300 292 294 294 296 296 295 295 296 294 296 291 295 295 300 302 302 304 308 307 306 306
303 302 305 303 303 302 298 299 298 299 298 297 296 297 298 293 294 292 295 295 295 299 298 300 290 293 291 294 295 293 295 296 295 296 296 295 295 302 304 304 304 305 305 305 305
310 310 306 301 302 301 300 299 298 299 299 300 298 296 295 296 300 301 300 300 299 297 295 293 292 290 286 293 293 290 294 295 296 297 296 292 297 301 301 303 304 304 304 304 305

GFSSW_sfc_thetae_120.txt.gz
Theta_e
318 318 318 318 318 318 317 317 316 315 316 316 316 315 316 315 315 307 300 307 309 318 321 308 307 304 303 297 298 298 289 289 292 296 299 307 306 312 319 319 323 330 329 333 335
317 317 317 317 317 318 317 317 316 315 315 316 316 316 315 315 306 302 311 318 320 325 312 305 301 301 294 294 295 292 288 291 297 299 299 305 306 307 314 316 318 321 335 339 339
315 316 316 316 316 317 316 317 317 316 315 315 316 315 315 313 300 303 320 321 322 321 315 308 303 298 292 293 292 292 290 295 299 301 303 303 304 306 310 309 315 317 329 330 334
314 314 315 315 315 316 316 316 316 317 315 314 315 315 315 307 286 310 334 336 327 321 310 303 298 291 290 289 294 290 297 298 300 302 302 302 306 304 307 309 317 320 317 316 317
314 314 314 314 314 315 315 315 315 315 315 313 313 314 308 299 299 308 329 334 321 316 306 301 293 292 290 292 293 291 296 299 301 302 302 302 303 302 308 313 311 313 318 312 310
315 314 314 314 314 315 315 315 315 315 314 314 313 314 304 294 305 314 320 319 316 311 305 298 295 296 295 295 293 296 297 299 300 299 301 300 301 301 305 310 310 309 310 308 310
314 314 314 314 314 314 314 314 314 314 314 314 314 311 304 300 310 313 311 309 310 310 302 303 301 296 298 295 298 298 294 297 299 300 297 300 297 299 305 307 306 306 307 309 310
315 314 314 314 314 314 314 314 313 313 314 314 315 310 300 312 311 308 308 306 308 309 306 303 302 297 297 298 298 293 291 290 298 299 300 300 293 300 303 303 304 306 306 308 309
315 315 314 315 314 313 313 312 312 314 317 315 309 305 298 315 311 312 310 307 307 307 305 307 303 299 298 292 289 289 286 288 293 299 299 298 294 300 304 302 302 303 304 306 305
316 315 315 315 314 313 311 311 312 313 314 313 312 301 304 305 311 310 309 309 307 306 303 302 298 294 292 288 283 287 288 291 291 297 296 294 293 298 302 301 301 301 302 304 305
316 315 314 315 314 312 309 302 304 304 307 302 304 303 305 314 314 307 309 309 307 301 294 298 291 289 292 293 294 293 291 291 294 297 295 293 294 298 300 298 298 300 300 301 303
315 314 313 313 314 312 308 298 305 306 298 308 309 307 309 310 306 306 310 304 301 294 297 294 290 295 298 298 296 295 292 291 295 298 294 293 294 298 300 299 299 300 300 302 302
313 313 313 313 312 306 303 302 308 308 297 304 310 308 309 310 306 305 307 304 299 295 295 292 296 301 298 296 295 295 292 292 293 296 296 293 290 294 298 299 300 301 301 302 303
313 312 312 312 305 305 303 309 308 308 293 299 304 308 311 310 303 310 310 304 299 296 296 295 300 299 297 296 296 290 296 296 295 291 285 292 282 289 294 296 298 299 300 301 303
312 313 312 312 301 301 310 308 306 304 285 306 304 313 309 302 303 305 309 305 298 298 298 294 296 295 294 295 297 293 297 295 294 289 285 287 283 287 292 293 295 298 299 300 303
313 313 312 305 303 306 311 311 306 293 287 302 304 302 301 302 302 305 304 306 305 298 298 296 301 298 296 299 298 299 294 291 288 285 280 286 286 285 290 292 295 299 301 302 302
313 312 309 307 302 310 308 303 292 288 305 300 301 300 299 298 299 301 300 296 293 289 289 294 295 300 301 295 296 293 285 279 278 279 280 288 286 287 293 299 300 301 302 301 302
310 309 305 306 305 307 307 298 287 299 298 304 302 300 296 299 298 299 297 293 297 295 291 289 288 297 301 297 290 290 287 280 275 277 280 290 285 289 301 303 304 305 303 304 304
307 301 304 310 309 309 302 291 296 299 300 299 299 297 298 301 302 301 299 295 297 295 289 289 291 302 304 304 300 295 289 291 285 284 281 285 290 296 303 303 304 304 304 302 302
300 299 305 316 314 307 298 295 301 306 302 300 294 297 292 295 298 299 297 303 301 302 299 296 290 300 301 303 303 299 300 289 286 279 277 284 286 287 296 299 301 303 302 301 300
297 301 312 315 312 302 293 297 303 308 304 299 296 294 294 293 296 296 298 301 304 302 301 297 293 294 297 295 293 293 292 293 292 290 280 281 287 299 299 301 300 301 304 304 303
295 297 311 313 299 301 296 301 305 304 304 301 300 298 295 294 293 295 296 298 303 303 297 297 293 288 292 298 300 296 291 291 285 286 287 283 284 301 301 302 304 301 306 306 305
292 296 311 309 296 296 301 302 303 302 300 299 296 297 297 292 289 295 297 302 303 300 296 296 289 283 286 290 296 293 294 293 291 291 289 286 287 302 301 301 303 303 305 306 305
293 294 300 302 301 297 295 298 297 302 299 299 298 298 294 290 291 289 294 297 301 300 304 298 289 286 281 286 291 289 292 293 291 287 289 290 292 296 298 300 300 301 303 303 303
295 296 297 292 295 295 297 297 295 295 298 297 294 294 291 286 288 287 291 293 298 302 296 292 284 288 288 291 291 290 290 291 290 290 287 289 291 294 298 299 300 301 301 302 303
294 294 297 296 298 297 295 295 295 295 294 293 291 293 291 286 288 287 289 289 290 295 292 296 285 287 286 290 290 289 292 291 291 291 291 292 291 298 302 299 300 302 300 300 300
299 300 297 294 294 293 293 296 296 295 296 296 294 290 288 291 293 292 292 293 292 290 291 292 289 286 282 288 287 282 289 292 292 293 293 289 292 296 296 297 298 295 296 297 298

GFSSW_sfc_thetae_123.txt.gz
Theta_e
317 317 317 317 318 317 317 317 317 316 315 315 315 315 315 315 314 305 299 305 308 317 319 305 305 304 300 296 295 296 288 286 289 293 294 303 301 311 311 312 325 327 329 333 342
315 315 316 316 316 317 316 316 316 316 316 315 315 315 316 315 305 301 310 316 320 321 307 298 297 299 293 294 294 290 285 289 293 295 295 301 301 304 305 305 315 324 333 339 340
314 314 314 315 315 316 315 315 316 316 316 315 314 314 314 312 296 295 316 319 321 322 309 303 301 297 291 291 290 290 288 292 295 298 299 300 300 304 303 302 307 315 329 333 334
314 314 314 314 314 315 314 315 315 315 315 315 314 314 314 306 287 304 334 327 323 317 312 302 297 290 288 289 292 287 292 295 295 298 298 299 302 303 304 304 309 316 328 328 331
314 314 314 314 314 314 315 314 314 315 315 315 313 313 307 296 297 305 319 333 320 314 307 299 293 291 288 290 291 287 291 294 298 298 298 300 300 301 302 306 310 325 326 325 328
315 315 315 314 314 315 315 314 314 314 314 314 314 313 304 293 306 307 317 318 316 309 304 297 295 293 291 292 291 293 294 295 295 295 296 297 299 301 304 307 307 310 311 322 328
316 315 315 315 315 315 315 314 313 313 313 314 314 311 303 298 309 309 312 311 315 310 303 302 297 295 294 293 296 296 291 294 295 295 295 297 295 298 303 305 306 306 308 309 314
316 316 316 316 315 315 315 314 312 312 313 314 315 308 298 310 310 308 307 305 310 313 304 304 300 294 292 295 296 291 288 284 294 296 297 297 291 300 303 303 304 305 305 307 308
315 315 314 314 315 315 315 313 311 313 314 315 309 304 297 313 309 312 307 305 304 309 306 306 298 293 295 289 286 287 284 286 290 296 296 295 291 299 303 302 301 303 303 305 307
315 315 314 314 314 314 314 312 311 312 314 312 311 301 304 302 310 310 309 308 304 302 300 298 294 292 288 286 282 286 285 287 288 293 293 292 291 296 300 301 301 301 303 303 305
315 314 313 313 313 313 310 302 304 302 306 299 301 303 305 311 315 305 308 306 304 300 293 295 290 288 290 291 292 291 290 289 292 296 293 292 292 295 298 296 297 298 299 300 302
314 314 313 312 313 312 308 298 302 306 298 305 306 305 310 311 305 308 309 301 298 292 294 292 288 295 296 295 294 293 290 290 293 296 293 292 292 295 296 296 297 298 298 299 299
313 313 312 312 311 306 303 302 307 305 295 302 307 305 307 309 305 305 305 303 297 293 293 289 293 299 296 294 292 291 289 290 291 294 294 291 289 291 295 296 297 298 299 300 300
313 312 312 312 304 302 302 308 308 306 292 298 303 307 309 309 303 311 308 304 297 293 294 293 297 297 295 293 294 288 295 294 293 289 284 290 281 287 292 294 296 297 296 298 300
312 312 312 312 303 299 308 309 306 302 283 304 304 313 308 303 302 304 308 303 297 296 295 292 294 293 292 293 295 291 296 293 292 287 285 286 282 286 291 293 294 295 297 298 300
312 312 312 305 304 304 308 308 304 293 286 302 304 302 300 301 301 303 302 305 304 296 297 295 299 297 295 297 296 297 291 289 286 284 279 284 284 285 289 291 294 297 299 301 299
311 312 309 308 298 306 306 303 292 289 303 299 300 299 298 297 299 300 297 296 292 289 289 293 293 297 299 294 294 291 284 279 278 278 279 286 284 286 292 296 298 299 300 300 298
309 309 304 306 306 306 305 297 288 298 298 304 303 300 296 298 297 300 296 292 296 295 290 288 286 295 299 296 293 289 286 280 276 276 279 288 283 287 300 301 301 301 300 301 300
308 299 299 305 307 305 302 291 294 298 302 298 299 295 296 301 299 300 299 298 297 295 290 289 290 301 302 302 299 292 288 290 283 282 280 283 288 293 300 301 301 300 301 299 299
299 297 301 310 308 305 297 294 300 305 304 300 293 296 291 293 296 298 297 301 301 302 297 293 289 298 300 302 301 298 298 289 286 279 277 282 284 285 294 296 299 298 296 297 298
295 297 309 312 309 301 292 295 303 307 306 298 295 293 293 292 295 295 296 301 303 302 301 296 292 293 297 294 291 293 292 293 290 289 281 279 283 297 297 297 297 298 299 299 297
293 292 308 309 297 299 296 301 303 305 304 301 299 296 294 293 292 294 294 297 302 301 296 297 292 288 292 297 299 293 291 291 285 283 285 283 284 300 301 301 302 301 303 301 300
291 292 305 306 293 295 299 302 304 301 298 298 296 297 295 291 287 292 296 298 300 299 294 295 288 283 286 289 294 292 293 292 291 288 284 281 285 300 301 302 303 301 302 306 304
291 290 297 298 298 295 294 295 295 301 298 298 297 297 293 289 289 287 292 296 299 298 304 297 288 285 281 285 289 287 290 291 289 285 286 289 289 295 297 299 301 303 303 303 303
292 292 294 290 293 294 294 295 295 294 297 296 294 294 291 285 287 286 289 291 296 300 296 291 284 286 287 290 290 289 289 288 287 288 285 287 289 294 295 296 298 302 304 302 302
292 292 295 293 296 294 293 293 294 294 294 293 290 292 291 286 287 285 288 287 288 293 290 291 283 285 284 289 289 287 289 290 290 290 289 290 289 295 298 299 297 297 297 297 296
298 296 294 292 293 291 291 294 296 295 296 296 294 291 289 290 292 292 292 292 291 289 288 287 288 283 280 286 286 281 285 287 290 292 290 285 290 294 293 294 292 292 294 295 295

GFSSW_sfc_thetae_126.txt.gz
Theta_e
315 315 315 316 316 316 316 316 316 317 316 316 315 315 315 316 315 304 298 304 308 318 319 304 305 304 299 296 295 294 287 282 285 291 293 299 298 305 308 305 311 328 327 332 343
314 314 314 314 314 315 315 315 316 316 316 316 315 314 314 315 306 301 310 315 319 321 306 297 296 298 292 293 293 290 284 287 292 294 293 297 297 300 302 303 304 322 334 341 341
314 314 314 314 314 315 314 314 315 315 316 316 314 314 313 312 297 293 315 318 320 321 304 299 299 296 289 289 291 288 285 291 293 295 296 297 298 302 299 299 304 309 329 337 337
315 315 315 315 315 315 314 314 314 314 314 314 314 313 313 304 289 310 326 321 322 315 304 299 295 290 287 288 290 285 291 294 294 296 294 295 300 300 301 301 306 307 316 335 334
316 316 316 316 316 316 316 315 314 314 314 313 314 313 305 296 296 305 318 326 318 313 303 297 293 289 286 288 290 287 290 292 294 295 296 296 296 297 300 303 307 306 319 332 332
316 316 316 316 316 316 315 315 314 313 312 313 314 312 302 292 304 309 320 318 314 308 302 297 293 292 289 289 290 292 293 294 293 292 293 293 296 298 301 304 305 305 321 330 331
316 316 315 315 315 315 315 314 313 312 312 313 315 310 301 297 308 309 312 311 314 308 301 299 296 294 291 290 294 293 290 292 292 292 291 294 291 294 301 303 302 303 314 321 322
315 316 316 316 315 315 315 315 313 313 312 313 315 307 296 307 310 307 306 306 315 309 303 303 298 292 290 293 294 289 287 283 292 293 294 294 288 296 299 300 300 302 305 314 315
315 315 315 314 315 315 314 314 313 313 313 313 309 303 295 312 308 310 307 304 309 310 308 306 298 292 292 288 286 285 283 284 288 293 293 293 289 296 299 300 300 302 303 305 309
316 315 314 313 314 314 313 313 312 313 314 312 310 298 301 303 309 311 308 306 302 303 300 298 291 288 286 285 280 283 283 286 287 291 291 289 290 294 297 298 300 299 301 302 305
315 314 314 313 313 313 311 303 303 302 306 297 299 299 305 311 314 306 308 305 302 297 290 292 287 285 288 289 290 289 288 288 291 294 291 290 290 293 296 296 296 307 298 300 302
314 315 313 312 313 312 309 299 301 303 297 304 303 304 306 309 304 307 307 300 297 292 292 290 287 292 294 293 291 290 288 288 292 294 291 291 291 293 294 294 296 298 304 300 301
313 313 313 313 312 306 303 301 306 303 294 300 304 303 304 308 304 306 304 302 297 292 291 288 291 296 294 293 291 289 288 288 290 293 291 289 288 290 294 295 296 296 298 300 301
312 312 313 312 303 300 299 306 308 306 290 297 301 304 307 307 303 311 306 302 297 294 293 291 295 295 293 292 292 287 293 293 291 288 283 288 281 286 290 292 295 296 295 298 299
312 312 312 312 304 300 304 306 306 301 282 303 302 311 308 303 301 304 308 303 296 294 293 291 292 292 291 292 294 291 294 292 291 286 283 284 282 285 289 291 293 294 297 297 298
311 312 311 307 304 303 305 306 302 291 284 301 303 301 300 301 301 302 302 305 303 294 295 294 297 295 294 296 295 296 289 287 284 283 279 283 282 283 287 290 293 296 300 301 300
311 310 309 308 297 303 303 301 290 286 303 298 299 300 298 297 298 298 296 294 292 288 289 292 292 295 298 292 293 289 284 278 278 277 278 284 283 285 291 298 298 298 299 299 300
309 308 306 306 306 306 301 295 285 297 297 304 302 299 295 296 296 297 295 291 295 294 289 287 285 293 297 295 292 290 285 279 276 276 278 286 281 287 299 301 300 300 299 300 299
307 298 297 301 305 302 299 288 291 298 300 298 299 296 295 301 298 298 298 297 298 295 289 288 289 299 301 301 297 290 287 288 281 281 279 282 286 292 299 299 300 298 298 298 299
302 294 299 305 306 302 295 292 297 305 303 299 293 295 290 293 296 296 296 299 301 303 297 292 288 297 299 299 299 296 295 286 284 279 277 281 283 284 293 295 297 297 297 296 297
293 293 305 306 304 298 290 293 301 307 304 298 295 293 293 292 295 293 295 299 303 302 301 295 291 293 297 292 290 292 290 291 288 285 279 279 282 292 294 296 296 298 299 298 296
295 289 305 308 295 295 292 299 302 303 303 301 298 296 293 292 291 293 293 294 299 302 297 297 294 289 292 297 298 293 289 290 283 282 283 282 286 300 300 300 300 299 302 302 301
294 289 302 305 290 292 297 300 303 300 299 297 295 296 295 290 287 292 294 297 299 297 293 294 289 283 285 287 292 290 291 291 289 286 282 280 284 299 301 301 303 302 304 304 305
293 289 297 298 295 293 294 294 295 300 298 298 296 296 292 288 289 288 291 295 298 298 303 296 287 285 282 284 287 285 289 289 286 281 282 284 288 293 297 298 300 300 304 304 305
289 290 292 290 293 292 292 294 294 293 295 295 292 293 290 284 285 286 289 291 295 298 294 290 284 285 285 288 289 288 288 287 286 286 283 284 287 291 295 297 297 298 301 302 303
290 290 294 291 295 294 293 293 294 293 293 292 291 292 290 286 286 285 288 287 287 293 289 289 282 283 283 288 287 285 287 288 288 288 287 288 287 294 297 296 296 297 298 298 296
296 299 294 291 294 292 292 294 295 294 294 295 293 290 288 289 291 290 291 291 290 289 287 285 283 281 280 285 285 280 284 286 286 289 288 284 289 293 293 293 293 292 294 294 294

GFSSW_sfc_thetae_129.txt.gz
Theta_e
315 315 315 315 316 315 315 315 315 316 317 317 316 315 315 315 315 310 303 311 311 316 319 313 310 305 304 303 303 303 297 293 294 295 297 304 303 309 311 310 311 317 329 338 350
316 315 315 315 315 316 315 315 315 315 316 316 315 314 315 314 309 304 313 316 320 321 308 305 302 301 298 300 302 300 295 294 299 300 300 302 302 304 306 309 309 312 339 345 348
316 316 316 316 317 317 316 316 316 315 315 315 315 314 314 313 302 302 315 319 320 321 309 304 305 301 297 299 299 297 294 297 299 301 302 301 302 305 304 304 309 310 317 339 345
317 317 317 317 317 316 316 316 316 316 315 314 314 314 313 309 294 318 323 321 321 319 305 303 301 298 296 295 298 294 297 299 300 301 301 300 303 302 304 306 310 311 313 313 330
317 316 317 317 316 316 316 316 316 315 314 314 313 314 309 300 300 312 323 323 320 311 303 301 299 297 294 295 297 295 297 298 300 300 301 302 299 300 301 305 308 309 310 310 314
316 316 316 316 315 316 316 316 315 314 314 314 314 314 305 296 308 317 311 320 317 311 304 302 300 300 296 296 296 298 298 298 299 299 300 298 299 300 302 306 306 308 309 311 316
316 316 316 316 316 316 316 315 314 314 314 314 314 312 302 301 310 312 320 318 317 312 303 303 303 299 298 296 300 298 296 300 300 300 298 300 295 296 302 304 304 306 309 311 316
316 316 316 315 315 315 315 315 314 314 315 314 314 310 299 310 312 310 311 312 316 311 306 306 303 300 298 300 299 297 295 293 300 300 300 298 294 301 304 303 304 307 308 310 313
316 315 315 314 315 314 314 314 314 315 315 313 310 304 298 313 307 310 311 310 313 310 308 307 304 298 297 294 295 295 292 293 296 299 298 298 297 302 306 305 305 307 308 310 313
315 314 314 314 314 313 313 313 313 314 313 312 309 299 303 302 309 311 311 313 307 307 303 300 298 293 294 293 289 291 291 293 294 299 297 296 297 302 305 304 305 307 309 310 311
315 314 313 313 314 313 311 307 304 303 306 301 301 301 304 310 314 308 309 307 306 303 296 298 292 288 292 294 296 296 294 293 297 300 298 298 299 302 304 304 305 306 308 313 313
314 313 313 314 312 312 309 301 304 307 299 306 305 304 307 309 304 305 308 302 301 296 297 294 291 296 298 298 295 295 294 294 298 300 298 299 299 303 303 304 305 306 308 311 313
313 313 313 313 312 308 304 304 310 308 298 301 305 303 305 307 303 303 305 303 299 296 296 294 296 299 297 296 295 295 294 295 295 298 300 297 297 299 301 303 304 306 308 310 313
312 312 312 312 307 306 303 308 310 309 295 298 301 305 306 308 303 312 307 303 300 296 297 296 299 296 296 296 298 294 300 298 297 295 291 296 289 297 300 301 303 305 305 308 309
311 312 312 311 305 302 306 310 310 306 285 302 302 312 309 304 305 306 308 304 298 298 298 295 296 295 295 297 299 296 299 298 297 295 294 294 292 295 298 299 302 304 307 311 311
310 310 310 308 306 307 309 309 307 294 285 300 304 302 301 304 302 305 303 307 306 300 298 298 301 300 299 300 300 300 297 294 293 294 289 294 292 293 297 299 302 306 310 310 311
311 311 309 309 302 308 308 304 294 288 302 299 300 302 300 299 300 300 300 299 296 292 292 296 297 300 301 298 300 297 294 289 287 287 287 292 290 294 298 304 305 306 308 309 311
309 308 308 308 310 308 307 300 287 294 298 304 301 301 297 300 299 299 297 296 300 298 294 291 289 296 300 298 297 297 296 290 283 284 288 291 289 295 304 307 306 306 308 311 312
306 307 302 306 309 308 302 293 292 297 300 297 300 294 297 300 299 300 298 296 299 299 293 292 292 301 303 304 302 296 293 296 290 289 289 292 294 299 304 304 305 306 307 308 310
303 299 301 309 309 306 301 294 299 304 303 300 293 296 293 296 297 299 298 300 302 303 303 297 291 299 302 304 303 300 300 293 294 285 284 289 290 293 300 302 303 305 306 307 309
302 297 307 310 308 305 295 297 301 307 304 299 296 294 294 293 297 297 297 299 301 303 303 301 296 296 300 297 296 299 297 297 296 294 288 286 290 300 302 304 303 305 306 307 307
299 293 307 309 301 301 298 300 301 303 305 302 301 298 294 294 295 296 295 297 300 303 299 300 298 293 295 299 301 299 297 298 293 291 293 291 291 305 305 306 307 306 309 310 311
294 294 306 310 296 298 302 301 303 300 299 298 297 298 297 293 292 295 295 298 302 301 300 300 295 289 290 295 298 296 297 297 297 296 292 290 292 304 305 306 308 308 309 310 311
296 291 302 302 301 298 296 296 296 301 299 300 298 298 295 292 294 294 293 296 301 302 302 300 294 292 289 290 295 292 294 295 294 291 291 292 294 299 301 302 305 309 310 308 309
296 295 297 293 295 296 298 297 295 294 298 298 296 295 294 290 290 290 293 294 298 300 299 298 291 292 292 293 293 292 293 293 292 293 289 292 291 295 298 299 301 303 305 306 307
294 295 298 296 296 295 295 296 295 295 296 294 295 295 294 291 291 290 292 292 291 297 296 296 291 291 288 290 290 289 291 292 292 292 292 292 292 299 301 302 302 302 304 304 305
299 300 297 295 295 293 294 295 295 297 296 297 297 294 292 293 296 297 297 297 296 295 293 293 291 287 283 288 288 285 289 290 291 293 292 290 296 300 299 300 299 300 302 302 301

GFSSW_sfc_thetae_132.txt.gz
Theta_e
317 317 317 316 316 316 316 316 316 316 316 317 317 316 316 316 316 315 309 316 317 318 319 312 311 308 307 307 309 309 300 298 300 301 302 306 306 311 314 312 315 319 321 336 349
318 317 318 318 318 317 317 317 317 317 316 316 316 316 315 315 313 310 320 321 320 320 314 309 305 305 303 304 306 304 300 301 304 305 303 306 306 307 308 310 311 315 328 338 347
317 317 318 318 318 318 317 317 317 317 316 316 316 315 315 315 309 309 321 325 321 322 312 310 309 304 301 304 305 303 299 304 303 305 305 304 304 307 306 305 311 313 319 330 336
317 317 317 317 317 317 317 316 317 317 316 316 315 315 315 314 301 319 324 323 323 318 310 307 306 302 301 299 304 299 303 303 303 304 304 303 305 304 306 307 312 314 317 317 318
317 317 317 317 316 317 316 316 316 316 316 315 314 314 313 307 308 322 324 322 320 313 307 306 304 304 300 301 302 299 301 303 304 304 304 305 303 303 304 308 310 312 313 313 315
317 317 317 317 317 316 317 316 315 315 315 314 315 314 309 301 315 314 317 318 316 313 308 308 306 307 302 301 301 302 302 302 303 304 305 302 302 303 304 308 308 309 310 312 315
317 317 317 317 316 316 316 315 314 315 314 315 315 312 305 307 315 319 317 317 317 313 308 310 308 304 304 300 303 302 299 303 304 305 303 305 300 301 306 307 306 308 310 312 314
316 316 316 316 316 315 315 315 314 315 316 316 316 310 303 316 318 315 320 319 319 318 312 311 308 305 302 304 303 302 302 298 303 305 306 303 298 306 309 307 305 307 308 310 313
316 315 315 315 315 315 314 314 314 315 317 314 311 308 303 315 310 314 316 314 316 313 311 310 307 302 300 298 298 301 296 297 299 305 303 302 301 307 309 308 307 308 309 310 313
315 314 314 315 314 314 313 314 315 314 312 313 310 301 308 306 311 313 315 317 310 308 305 304 303 298 298 296 290 296 296 298 297 303 302 302 302 306 310 309 309 310 311 311 312
314 314 314 314 314 313 312 312 310 307 307 306 307 306 307 312 315 310 312 313 310 306 299 302 296 293 296 298 300 299 298 297 301 304 302 302 303 306 309 310 309 310 311 312 313
313 313 314 314 314 313 311 308 309 311 304 312 310 309 311 312 307 308 312 307 305 299 301 297 293 298 299 299 299 299 298 298 301 303 302 302 302 306 308 309 310 311 312 313 314
312 312 313 313 312 311 310 309 314 314 304 307 309 308 309 311 306 305 309 308 303 300 299 296 298 301 299 299 298 299 297 298 298 302 303 302 300 303 307 308 310 312 312 314 315
311 311 311 311 309 313 307 313 315 315 300 303 304 308 310 310 305 312 310 308 304 299 300 299 303 300 300 298 300 296 301 300 299 298 294 302 293 301 304 305 307 310 311 314 315
311 311 311 310 306 306 309 317 317 313 289 305 306 315 311 306 308 307 310 307 301 300 301 297 299 299 298 299 302 298 303 301 301 299 298 298 295 300 303 302 305 308 311 315 317
311 311 311 309 310 311 314 314 313 298 288 301 307 305 304 306 305 308 305 307 306 302 303 300 305 303 301 302 303 303 300 300 300 298 292 297 296 297 301 303 305 309 313 315 317
310 310 309 310 306 315 314 309 298 291 302 300 301 304 303 301 302 302 299 298 296 292 295 299 299 303 304 300 304 301 299 291 290 290 290 298 296 298 304 305 308 310 313 316 319
308 307 311 312 314 315 311 304 290 296 298 305 303 302 299 301 301 301 300 297 301 300 296 292 291 300 303 301 298 299 299 292 286 288 292 297 292 300 306 311 312 312 314 317 319
306 310 310 314 315 314 307 296 295 298 302 300 301 291 294 300 299 300 300 299 301 303 296 294 293 302 303 304 303 299 295 302 295 296 292 296 299 303 308 309 310 311 313 316 319
306 307 310 316 316 310 303 296 300 304 306 303 296 296 289 296 298 299 299 302 301 305 306 301 292 301 304 306 305 302 304 295 296 288 287 293 294 296 303 305 308 309 311 314 317
306 302 313 316 315 305 298 299 302 306 307 301 299 295 294 294 299 297 299 303 305 305 306 303 300 298 302 300 299 299 299 300 300 297 290 289 293 306 305 307 308 310 311 313 314
302 296 313 314 303 305 301 303 302 304 308 304 304 301 298 294 293 294 296 300 304 307 302 305 300 295 297 304 305 304 302 302 295 293 297 296 295 309 309 310 311 310 312 313 314
296 298 313 308 299 301 304 303 304 303 303 302 300 302 302 298 293 298 299 302 304 305 303 306 300 293 294 300 304 300 302 303 303 301 295 292 296 309 310 310 311 311 312 313 315
298 295 306 307 307 302 301 301 299 304 303 303 301 301 299 297 298 296 297 299 305 305 303 305 302 297 289 293 301 298 300 302 301 297 296 296 299 303 305 306 309 310 312 314 314
299 299 299 295 299 299 301 301 298 297 302 303 299 299 298 295 295 294 298 299 302 302 303 304 296 298 298 297 297 297 297 298 297 299 295 296 296 300 302 303 304 306 307 308 310
297 298 300 297 301 299 299 299 298 299 299 298 298 299 299 296 296 293 296 298 298 302 302 302 296 297 295 295 295 294 296 297 297 297 296 296 295 302 303 306 306 307 307 307 308
303 305 300 296 297 296 296 298 298 301 300 301 301 299 297 298 300 301 302 300 300 299 296 296 296 292 287 291 291 288 293 294 295 297 295 292 298 304 302 303 303 304 306 307 307